M I D A S
Marine Information and Data Acquisition System
Tripno 2061 of the Zeeleeuw from 2011-03-21 07:44:49 to 2011-03-21 15:48:16
Back to CruiseResearch ActivitiesStationsMapUnderway DataData graphs

EquipmentUnitsComment
TimeDGPSUTC
LatitudeDGPSDM.mWGS84
LongitudeDGPSDM.mWGS84
TemperatureSBE03/SBE38deg celciusITS90
ConductivitySBE21S/mITS90
SalinitySBE21 Practical Salinity Units
ChlorophylAChelsea fluorimeterg/lCalibrated in Aceton
Missing or incorrect values are displayed as -999
Sea surface data collected by the RV Zeeleeuw from 2011-03-21 07:44:43 to 2011-03-21 15:49:14
                                                                                    Next 1000 lines
Time Latitude Longitude Temperature Conductivity Salinity ChlorophylA
2011-03-21 07:44:53 51°13.661 2°55.956 13.6911 0.004568 0.028423 -3.020363
2011-03-21 07:44:58 51°13.662 2°55.953 13.7579 0.004568 0.028423 -3.020363
2011-03-21 07:45:03 51°13.664 2°55.95 13.8901 0.004568 0.028424 -3.020363
2011-03-21 07:45:07 51°13.664 2°55.947 13.882 0.004568 0.028424 -3.020363
2011-03-21 07:45:13 51°13.666 2°55.942 13.8839 0.004568 0.028424 -3.020363
2011-03-21 07:45:17 51°13.667 2°55.938 13.8642 0.004568 0.028424 -3.020363
2011-03-21 07:45:23 51°13.668 2°55.931 13.8689 0.004568 0.028424 -3.020363
2011-03-21 07:45:28 51°13.67 2°55.926 13.877 0.004568 0.028424 -3.020363
2011-03-21 07:45:33 51°13.672 2°55.919 13.9305 0.004568 0.028424 -3.020363
2011-03-21 07:45:38 51°13.674 2°55.912 13.9288 0.004568 0.028425 -3.020363
2011-03-21 07:45:43 51°13.675 2°55.905 13.9297 0.004568 0.028425 -3.020363
2011-03-21 07:45:49 51°13.677 2°55.896 13.9343 0.004568 0.028425 -3.020363
2011-03-21 07:45:53 51°13.679 2°55.89 13.9352 0.004568 0.028425 -3.020363
2011-03-21 07:45:58 51°13.68 2°55.882 13.94 0.004568 0.028425 -3.020363
2011-03-21 07:46:03 51°13.682 2°55.873 13.9338 0.004568 0.028425 -3.020363
2011-03-21 07:46:09 51°13.683 2°55.863 13.938 0.004568 0.028425 -3.020363
2011-03-21 07:46:14 51°13.685 2°55.854 13.9212 0.004568 0.028426 -3.020363
2011-03-21 07:46:18 51°13.686 2°55.847 13.9354 0.004568 0.028426 -3.020363
2011-03-21 07:46:23 51°13.687 2°55.839 13.9226 0.004568 0.028426 -3.020363
2011-03-21 07:46:28 51°13.689 2°55.83 13.9128 0.004568 0.028426 -3.020363
2011-03-21 07:46:34 51°13.69 2°55.82 13.9114 0.004568 0.028426 -3.020363
2011-03-21 07:46:38 51°13.691 2°55.813 13.9095 0.004568 0.028426 -3.020363
2011-03-21 07:46:43 51°13.691 2°55.805 13.9089 0.004568 0.028426 -3.020363
2011-03-21 07:46:48 51°13.692 2°55.797 13.9076 0.004568 0.028426 -3.020363
2011-03-21 07:46:53 51°13.693 2°55.789 13.9068 0.004568 0.028427 -3.020363
2011-03-21 07:46:58 51°13.693 2°55.782 13.9348 0.004568 0.028427 -3.020363
2011-03-21 07:47:03 51°13.694 2°55.776 13.9313 0.004568 0.028427 -3.020363
2011-03-21 07:47:08 51°13.694 2°55.772 13.9845 0.004568 0.028427 -3.020363
2011-03-21 07:47:13 51°13.695 2°55.771 13.98 0.004568 0.028427 -3.020363
2011-03-21 07:47:18 51°13.695 2°55.771 13.9891 0.004568 0.028427 -3.020363
2011-03-21 07:47:23 51°13.696 2°55.773 14.007 0.004568 0.028427 -3.020363
2011-03-21 07:47:28 51°13.698 2°55.775 13.9597 0.004568 0.028428 -3.020363
2011-03-21 07:47:33 51°13.699 2°55.778 13.7949 0.004568 0.028428 -3.020363
2011-03-21 07:47:38 51°13.701 2°55.779 13.7133 0.004568 0.028428 -3.020363
2011-03-21 07:47:43 51°13.702 2°55.78 13.765 0.004568 0.028428 -3.020363
2011-03-21 07:47:48 51°13.702 2°55.78 13.8467 0.004568 0.028428 -3.020363
2011-03-21 07:47:53 51°13.702 2°55.78 13.709 0.004568 0.028428 -3.020363
2011-03-21 07:47:58 51°13.701 2°55.778 13.8738 0.004568 0.028428 -3.020363
2011-03-21 07:48:03 51°13.699 2°55.776 13.921 0.004568 0.028429 -3.020363
2011-03-21 07:48:08 51°13.698 2°55.774 13.8984 0.004568 0.028429 -3.020363
2011-03-21 07:48:13 51°13.696 2°55.772 13.8932 0.004568 0.028429 -3.020363
2011-03-21 07:48:18 51°13.694 2°55.77 13.9319 0.004568 0.028429 -3.020363
2011-03-21 07:48:23 51°13.694 2°55.77 13.9645 0.004568 0.028429 -3.020363
2011-03-21 07:48:28 51°13.695 2°55.77 13.9767 0.004568 0.028429 -3.020363
2011-03-21 07:48:34 51°13.699 2°55.77 13.9886 0.004568 0.028429 -3.020363
2011-03-21 07:48:38 51°13.702 2°55.77 13.9911 0.004568 0.028429 -3.020363
2011-03-21 07:48:43 51°13.706 2°55.769 13.9571 0.004568 0.02843 -3.020363
2011-03-21 07:48:48 51°13.711 2°55.766 13.9495 0.004568 0.02843 -3.020363
2011-03-21 07:48:54 51°13.716 2°55.762 13.8746 0.004568 0.02843 -3.020363
2011-03-21 07:48:58 51°13.719 2°55.759 13.8454 0.004568 0.02843 -3.020363
2011-03-21 07:49:03 51°13.723 2°55.755 13.78 0.004568 0.02843 -3.020363
2011-03-21 07:49:07 51°13.726 2°55.752 13.773 0.004568 0.02843 -3.020363
2011-03-21 07:49:12 51°13.729 2°55.748 13.7773 0.004568 0.02843 -3.020363
2011-03-21 07:49:18 51°13.734 2°55.742 13.7906 0.004568 0.02843 -3.020363
2011-03-21 07:49:22 51°13.737 2°55.738 13.8038 0.004568 0.02843 -3.020363
2011-03-21 07:49:28 51°13.742 2°55.731 13.8045 0.004568 0.02843 -3.020363
2011-03-21 07:49:33 51°13.747 2°55.725 13.7866 0.004568 0.02843 -3.020363
2011-03-21 07:49:38 51°13.752 2°55.718 13.7719 0.004568 0.02843 -3.020363
2011-03-21 07:49:42 51°13.756 2°55.712 13.7428 0.004568 0.028431 -3.020363
2011-03-21 07:49:47 51°13.762 2°55.704 13.7431 0.004568 0.028431 -3.020363
2011-03-21 07:49:52 51°13.768 2°55.697 13.7077 0.004568 0.028431 -3.020363
2011-03-21 07:49:57 51°13.775 2°55.689 13.7154 0.004568 0.028431 -3.020363
2011-03-21 07:50:02 51°13.782 2°55.682 13.6903 0.004568 0.028431 -3.020363
2011-03-21 07:50:08 51°13.79 2°55.674 13.6821 0.004568 0.028431 -3.020363
2011-03-21 07:50:13 51°13.797 2°55.666 13.6753 0.004568 0.028431 -3.020363
2011-03-21 07:50:18 51°13.805 2°55.659 13.6598 0.004568 0.028431 -3.020363
2011-03-21 07:50:23 51°13.813 2°55.653 13.6521 0.004568 0.028431 -3.020363
2011-03-21 07:50:28 51°13.821 2°55.646 13.6629 0.004568 0.028431 -3.020363
2011-03-21 07:50:33 51°13.829 2°55.639 13.6707 0.004568 0.028431 -3.020363
2011-03-21 07:50:38 51°13.838 2°55.633 13.6856 0.004568 0.028432 -3.020363
2011-03-21 07:50:43 51°13.846 2°55.626 13.7018 0.004568 0.028432 -3.020363
2011-03-21 07:50:48 51°13.854 2°55.62 13.7073 0.004568 0.028432 -3.020363
2011-03-21 07:50:53 51°13.863 2°55.613 13.7126 0.004568 0.028432 -3.020363
2011-03-21 07:50:58 51°13.872 2°55.607 13.7178 0.004568 0.028432 -3.020363
2011-03-21 07:51:03 51°13.881 2°55.601 13.7232 0.004568 0.028432 -3.020363
2011-03-21 07:51:08 51°13.889 2°55.594 13.7266 0.004568 0.028432 -3.020363
2011-03-21 07:51:13 51°13.898 2°55.587 13.7266 0.004568 0.028432 -3.020363
2011-03-21 07:51:18 51°13.907 2°55.581 13.7276 0.004568 0.028433 -3.020363
2011-03-21 07:51:23 51°13.916 2°55.575 13.7459 0.004568 0.028433 -3.020363
2011-03-21 07:51:28 51°13.925 2°55.568 13.7487 0.004568 0.028433 -3.020363
2011-03-21 07:51:33 51°13.934 2°55.561 13.752 0.004568 0.028433 -3.020363
2011-03-21 07:51:38 51°13.943 2°55.555 13.7285 0.004568 0.028433 -3.020363
2011-03-21 07:51:43 51°13.952 2°55.548 13.7502 0.004568 0.028433 -3.020363
2011-03-21 07:51:48 51°13.961 2°55.542 13.7571 0.004568 0.028433 -3.020363
2011-03-21 07:51:53 51°13.97 2°55.536 13.7703 0.004568 0.028433 -3.020363
2011-03-21 07:51:58 51°13.979 2°55.529 13.7782 0.004568 0.028434 -3.020363
2011-03-21 07:52:03 51°13.989 2°55.523 13.7953 0.004568 0.028434 -3.020363
2011-03-21 07:52:08 51°13.998 2°55.517 13.8066 0.004568 0.028434 -3.020363
2011-03-21 07:52:13 51°14.007 2°55.51 13.8128 0.004568 0.028434 -3.020363
2011-03-21 07:52:18 51°14.016 2°55.503 13.8076 0.004568 0.028434 -3.020363
2011-03-21 07:52:23 51°14.025 2°55.497 13.8063 0.004568 0.028434 -3.020363
2011-03-21 07:52:28 51°14.034 2°55.49 13.8047 0.004568 0.028435 -3.020363
2011-03-21 07:52:33 51°14.043 2°55.483 13.7941 0.004568 0.028435 -3.020363
2011-03-21 07:52:38 51°14.052 2°55.477 13.7982 0.004568 0.028435 -3.020363
2011-03-21 07:52:43 51°14.061 2°55.47 13.7965 0.004568 0.028435 -3.020363
2011-03-21 07:52:49 51°14.072 2°55.462 13.8229 0.004568 0.028435 -3.020363
2011-03-21 07:52:53 51°14.079 2°55.456 13.8141 0.004568 0.028435 -3.020363
2011-03-21 07:52:58 51°14.088 2°55.449 13.8214 0.004568 0.028435 -3.020363
2011-03-21 07:53:03 51°14.097 2°55.442 13.8193 0.004568 0.028435 -3.020363
2011-03-21 07:53:08 51°14.106 2°55.435 13.8172 0.004568 0.028436 -3.020363
2011-03-21 07:53:14 51°14.117 2°55.426 13.8118 0.004568 0.028436 -3.020363
2011-03-21 07:53:18 51°14.124 2°55.421 13.8097 0.004568 0.028436 -3.020363
2011-03-21 07:53:23 51°14.133 2°55.414 13.8068 0.004568 0.028436 -3.020363
2011-03-21 07:53:28 51°14.142 2°55.407 13.8088 0.004568 0.028436 -3.020363
2011-03-21 07:53:33 51°14.151 2°55.399 13.8116 0.004568 0.028436 -3.020363
2011-03-21 07:53:38 51°14.16 2°55.392 13.8106 0.004568 0.028436 -3.020363
2011-03-21 07:53:43 51°14.168 2°55.384 13.8131 0.004568 0.028437 -3.020363
2011-03-21 07:53:48 51°14.177 2°55.376 13.8078 0.004568 0.028437 -3.020363
2011-03-21 07:53:53 51°14.186 2°55.369 13.81 0.004568 0.028437 -3.020363
2011-03-21 07:53:58 51°14.195 2°55.361 13.8131 0.004568 0.028437 -3.020363
2011-03-21 07:54:03 51°14.203 2°55.353 13.814 0.004568 0.028437 -3.020363
2011-03-21 07:54:08 51°14.212 2°55.345 13.8157 0.004568 0.028437 -3.020363
2011-03-21 07:54:13 51°14.22 2°55.337 13.8221 0.004568 0.028437 -3.020363
2011-03-21 07:54:18 51°14.229 2°55.329 13.8255 0.004568 0.028437 -3.020363
2011-03-21 07:54:23 51°14.237 2°55.32 13.8284 0.004568 0.028438 -3.020363
2011-03-21 07:54:29 51°14.247 2°55.31 13.8279 0.004568 0.028438 -3.020363
2011-03-21 07:54:33 51°14.254 2°55.304 13.8326 0.004568 0.028438 -3.020363
2011-03-21 07:54:38 51°14.263 2°55.295 13.8256 0.004568 0.028438 -3.020363
2011-03-21 07:54:43 51°14.271 2°55.287 13.8182 0.004568 0.028438 -3.020363
2011-03-21 07:54:48 51°14.28 2°55.278 13.8188 0.004568 0.028438 -3.020363
2011-03-21 07:54:53 51°14.288 2°55.27 13.8204 0.004568 0.028438 -3.020363
2011-03-21 07:54:58 51°14.297 2°55.261 13.8172 0.004568 0.028438 -3.020363
2011-03-21 07:55:03 51°14.305 2°55.253 13.8138 0.004568 0.028439 -3.020363
2011-03-21 07:55:08 51°14.314 2°55.244 13.8333 0.004568 0.028439 -3.020363
2011-03-21 07:55:13 51°14.322 2°55.235 13.8686 0.004568 0.028439 -3.020363
2011-03-21 07:55:18 51°14.332 2°55.225 13.8843 0.004568 0.028439 -3.020363
2011-03-21 07:55:23 51°14.341 2°55.215 13.8725 0.004568 0.028439 -3.020363
2011-03-21 07:55:28 51°14.351 2°55.204 13.7482 0.004568 0.028439 -3.020363
2011-03-21 07:55:33 51°14.362 2°55.194 13.7626 0.004568 0.028439 -3.020363
2011-03-21 07:55:38 51°14.373 2°55.183 13.7586 0.004568 0.02844 -3.020363
2011-03-21 07:55:43 51°14.384 2°55.172 13.7571 0.004568 0.02844 -3.020363
2011-03-21 07:55:48 51°14.395 2°55.16 13.7513 0.004568 0.02844 -3.020363
2011-03-21 07:55:53 51°14.406 2°55.149 13.77 0.004568 0.02844 -3.020363
2011-03-21 07:55:58 51°14.418 2°55.137 13.7157 0.004568 0.02844 -3.020363
2011-03-21 07:56:03 51°14.43 2°55.125 13.7169 0.004568 0.02844 -3.020363
2011-03-21 07:56:08 51°14.442 2°55.113 13.7198 0.004568 0.02844 -3.020363
2011-03-21 07:56:13 51°14.454 2°55.101 13.6782 0.004568 0.02844 -3.020363
2011-03-21 07:56:18 51°14.466 2°55.088 13.6644 0.004568 0.02844 -3.020363
2011-03-21 07:56:23 51°14.478 2°55.076 13.7259 0.004568 0.02844 -3.020363
2011-03-21 07:56:28 51°14.49 2°55.063 13.6819 0.004568 0.028441 -3.020363
2011-03-21 07:56:33 51°14.502 2°55.05 13.6628 0.004568 0.028441 -3.020363
2011-03-21 07:56:38 51°14.515 2°55.037 13.7323 0.004568 0.028441 -3.020363
2011-03-21 07:56:42 51°14.524 2°55.027 13.8074 0.004568 0.028441 -3.020363
2011-03-21 07:56:47 51°14.536 2°55.013 13.8227 0.004568 0.028441 -3.020363
2011-03-21 07:56:52 51°14.548 2°54.998 13.8323 0.004568 0.028441 -3.020363
2011-03-21 07:56:57 51°14.559 2°54.982 13.8381 0.004568 0.028441 -3.020363
2011-03-21 07:57:02 51°14.57 2°54.965 13.5948 0.004568 0.028442 -3.020363
2011-03-21 07:57:06 51°14.579 2°54.952 13.6376 0.004568 0.028442 -3.020363
2011-03-21 07:57:11 51°14.59 2°54.937 13.6828 0.004568 0.028442 -3.020363
2011-03-21 07:57:16 51°14.601 2°54.921 13.7035 0.004568 0.028442 -3.020363
2011-03-21 07:57:21 51°14.613 2°54.906 13.737 0.004568 0.028442 -3.020363
2011-03-21 07:57:26 51°14.625 2°54.891 13.7399 0.004568 0.028442 -3.020363
2011-03-21 07:57:30 51°14.634 2°54.88 13.7476 0.004568 0.028442 -3.020363
2011-03-21 07:57:35 51°14.646 2°54.866 13.7866 0.004568 0.028442 -3.020363
2011-03-21 07:57:40 51°14.658 2°54.851 13.8044 0.004568 0.028443 -3.020363
2011-03-21 07:57:45 51°14.67 2°54.837 13.8167 0.004568 0.028443 -3.020363
2011-03-21 07:57:50 51°14.682 2°54.822 13.8037 0.004568 0.028443 -3.020363
2011-03-21 07:57:55 51°14.694 2°54.808 13.8055 0.004568 0.028443 -3.020363
2011-03-21 07:58:00 51°14.706 2°54.792 13.6272 0.004568 0.028443 -3.020363
2011-03-21 07:58:05 51°14.718 2°54.777 13.6848 0.004568 0.028443 -3.020363
2011-03-21 07:58:10 51°14.731 2°54.762 13.6383 0.004568 0.028443 -3.020363
2011-03-21 07:58:15 51°14.744 2°54.747 13.5074 0.004568 0.028443 -3.020363
2011-03-21 07:58:20 51°14.757 2°54.732 13.6156 0.004568 0.028443 -3.020363
2011-03-21 07:58:25 51°14.771 2°54.717 13.6739 0.004568 0.028443 -3.020363
2011-03-21 07:58:30 51°14.785 2°54.703 13.6076 0.004568 0.028444 -3.020363
2011-03-21 07:58:34 51°14.796 2°54.692 13.5409 0.004568 0.028444 -3.020363
2011-03-21 07:58:40 51°14.814 2°54.675 13.6099 0.004568 0.028444 -3.020363
2011-03-21 07:58:45 51°14.828 2°54.661 13.6098 0.004568 0.028444 -3.020363
2011-03-21 07:58:50 51°14.843 2°54.648 13.6608 0.004568 0.028444 -3.020363
2011-03-21 07:58:54 51°14.855 2°54.637 13.705 0.004568 0.028444 -3.020363
2011-03-21 07:59:00 51°14.873 2°54.621 13.706 0.004568 0.028445 -3.020363
2011-03-21 07:59:05 51°14.887 2°54.607 13.7442 0.004568 0.028445 -3.020363
2011-03-21 07:59:10 51°14.902 2°54.593 13.7455 0.004568 0.028445 -3.020363
2011-03-21 07:59:15 51°14.917 2°54.578 13.7381 0.004568 0.028445 -3.020363
2011-03-21 07:59:20 51°14.931 2°54.564 13.7299 0.004568 0.028445 -3.020363
2011-03-21 07:59:25 51°14.946 2°54.549 13.6635 0.004568 0.028445 -3.020363
2011-03-21 07:59:30 51°14.96 2°54.534 13.6602 0.004568 0.028445 -3.020363
2011-03-21 07:59:34 51°14.971 2°54.523 13.7335 0.004568 0.028445 -3.020363
2011-03-21 07:59:40 51°14.988 2°54.506 13.7219 0.004568 0.028445 -3.020363
2011-03-21 07:59:45 51°15.003 2°54.491 13.7313 0.004568 0.028446 -3.020363
2011-03-21 07:59:50 51°15.017 2°54.475 13.7818 0.004568 0.028446 -3.020363
2011-03-21 07:59:54 51°15.028 2°54.462 13.7815 0.004568 0.028446 -3.020363
2011-03-21 08:00:00 51°15.044 2°54.443 13.7716 0.004568 0.028446 -3.020363
2011-03-21 08:00:05 51°15.057 2°54.425 13.732 0.004568 0.028446 -3.020363
2011-03-21 08:00:10 51°15.07 2°54.407 13.7039 0.004568 0.028446 -3.020363
2011-03-21 08:00:15 51°15.083 2°54.388 13.672 0.004568 0.028447 -3.020363
2011-03-21 08:00:20 51°15.095 2°54.369 13.6817 0.004568 0.028447 -3.020363
2011-03-21 08:00:25 51°15.108 2°54.35 13.5509 0.004568 0.028447 -3.020363
2011-03-21 08:00:30 51°15.12 2°54.331 13.477 0.004568 0.028447 -3.020363
2011-03-21 08:00:35 51°15.133 2°54.313 13.4967 0.004568 0.028447 -3.020363
2011-03-21 08:00:40 51°15.146 2°54.294 13.5407 0.004568 0.028447 -3.020363
2011-03-21 08:00:45 51°15.16 2°54.277 13.6048 0.004568 0.028447 -3.020363
2011-03-21 08:00:50 51°15.173 2°54.259 13.6184 0.004568 0.028447 -3.020363
2011-03-21 08:00:54 51°15.184 2°54.245 13.6997 0.004568 0.028448 -3.020363
2011-03-21 08:01:00 51°15.2 2°54.225 13.7161 0.004568 0.028448 -3.020363
2011-03-21 08:01:05 51°15.213 2°54.207 13.7145 0.004568 0.028448 -3.020363
2011-03-21 08:01:10 51°15.227 2°54.19 13.7015 0.004568 0.028448 -3.020363
2011-03-21 08:01:14 51°15.237 2°54.175 13.7335 0.004568 0.028448 -3.020363
2011-03-21 08:01:20 51°15.253 2°54.153 13.7462 0.004568 0.028448 -3.020363
2011-03-21 08:01:25 51°15.266 2°54.134 13.7504 0.004568 0.028448 -3.020363
2011-03-21 08:01:30 51°15.278 2°54.115 13.7149 0.004568 0.028449 -3.020363
2011-03-21 08:01:34 51°15.288 2°54.099 13.6712 0.004568 0.028449 -3.020363
2011-03-21 08:01:40 51°15.303 2°54.075 13.6013 0.004568 0.028449 -3.020363
2011-03-21 08:01:45 51°15.316 2°54.056 13.586 0.004568 0.028449 -3.020363
2011-03-21 08:01:50 51°15.329 2°54.037 13.6482 0.004568 0.028449 -3.020363
2011-03-21 08:01:54 51°15.339 2°54.022 13.5932 0.004568 0.02845 -3.020363
2011-03-21 08:02:00 51°15.355 2°54 13.6229 0.004568 0.02845 -3.020363
2011-03-21 08:02:05 51°15.368 2°53.982 13.6658 0.004568 0.02845 -3.020363
2011-03-21 08:02:10 51°15.381 2°53.964 13.6518 0.004568 0.02845 -3.020363
2011-03-21 08:02:15 51°15.395 2°53.947 13.6673 0.004568 0.02845 -3.020363
2011-03-21 08:02:20 51°15.408 2°53.929 13.662 0.004568 0.02845 -3.020363
2011-03-21 08:02:25 51°15.422 2°53.912 13.6872 0.004568 0.02845 -3.020363
2011-03-21 08:02:30 51°15.436 2°53.895 13.708 0.004568 0.028451 -3.020363
2011-03-21 08:02:34 51°15.447 2°53.881 13.7281 0.004568 0.028451 -3.020363
2011-03-21 08:02:40 51°15.463 2°53.86 13.7468 0.004568 0.028451 -3.020363
2011-03-21 08:02:45 51°15.477 2°53.843 13.7149 0.004568 0.028451 -3.020363
2011-03-21 08:02:50 51°15.49 2°53.825 13.738 0.004568 0.028452 -3.020363
2011-03-21 08:02:55 51°15.503 2°53.807 13.7243 0.004568 0.028452 -3.020363
2011-03-21 08:03:00 51°15.517 2°53.789 13.7116 0.004568 0.028452 -3.020363
2011-03-21 08:03:05 51°15.53 2°53.77 13.7038 0.004568 0.028452 -3.020363
2011-03-21 08:03:10 51°15.543 2°53.751 13.6274 0.004568 0.028453 -3.020363
2011-03-21 08:03:14 51°15.553 2°53.736 13.5536 0.004568 0.028453 -3.020363
2011-03-21 08:03:20 51°15.569 2°53.714 13.5164 0.004568 0.028453 -3.020363
2011-03-21 08:03:25 51°15.583 2°53.697 13.5605 0.004568 0.028453 -3.020363
2011-03-21 08:03:30 51°15.596 2°53.68 13.6064 0.004568 0.028453 -3.020363
2011-03-21 08:03:34 51°15.607 2°53.667 13.671 0.004568 0.028453 -3.020363
2011-03-21 08:03:40 51°15.624 2°53.647 13.6943 0.004568 0.028453 -3.020363
2011-03-21 08:03:45 51°15.638 2°53.631 13.6994 0.004568 0.028454 -3.020363
2011-03-21 08:03:50 51°15.653 2°53.616 13.7088 0.004568 0.028454 -3.020363
2011-03-21 08:03:54 51°15.664 2°53.604 13.7457 0.004568 0.028454 -3.020363
2011-03-21 08:04:00 51°15.681 2°53.586 13.7413 0.004568 0.028455 -3.020363
2011-03-21 08:04:05 51°15.696 2°53.571 13.7563 0.004568 0.028455 -3.020363
2011-03-21 08:04:10 51°15.71 2°53.556 13.7617 0.004568 0.028455 -3.020363
2011-03-21 08:04:14 51°15.721 2°53.543 13.7522 0.004568 0.028455 -3.020363
2011-03-21 08:04:20 51°15.738 2°53.523 13.7377 0.004568 0.028456 -3.020363
2011-03-21 08:04:25 51°15.752 2°53.507 13.7154 0.004568 0.028456 -3.020363
2011-03-21 08:04:30 51°15.766 2°53.49 13.6433 0.004568 0.028456 -3.020363
2011-03-21 08:04:35 51°15.779 2°53.474 13.5881 0.004568 0.028456 -3.020363
2011-03-21 08:04:40 51°15.793 2°53.458 13.5661 0.004568 0.028456 -3.020363
2011-03-21 08:04:45 51°15.807 2°53.442 13.6288 0.004568 0.028456 -3.020363
2011-03-21 08:04:50 51°15.822 2°53.427 13.5617 0.004568 0.028457 -3.020363
2011-03-21 08:04:55 51°15.836 2°53.412 13.5223 0.004568 0.028457 -3.020363
2011-03-21 08:05:00 51°15.851 2°53.398 13.6184 0.004568 0.028457 -3.020363
2011-03-21 08:05:05 51°15.866 2°53.384 13.5946 0.004568 0.028458 -3.020363
2011-03-21 08:05:10 51°15.88 2°53.371 13.6724 0.004568 0.028458 -3.020363
2011-03-21 08:05:14 51°15.893 2°53.361 13.6884 0.004568 0.028458 -3.020363
2011-03-21 08:05:20 51°15.911 2°53.347 13.7 0.004568 0.028459 -3.020363
2011-03-21 08:05:25 51°15.926 2°53.335 13.7227 0.004568 0.028459 -3.020363
2011-03-21 08:05:30 51°15.941 2°53.322 13.7122 0.004568 0.028459 -3.020363
2011-03-21 08:05:34 51°15.953 2°53.312 13.719 0.004568 0.02846 -3.020363
2011-03-21 08:05:40 51°15.97 2°53.297 13.7144 0.004568 0.02846 -3.020363
2011-03-21 08:05:45 51°15.985 2°53.284 13.7166 0.004568 0.02846 -3.020363
2011-03-21 08:05:50 51°16 2°53.271 13.7284 0.004568 0.02846 -3.020363
2011-03-21 08:05:54 51°16.012 2°53.26 13.7339 0.004568 0.028461 -3.020363
2011-03-21 08:06:00 51°16.03 2°53.244 13.7131 0.004568 0.028461 -3.020363
2011-03-21 08:06:05 51°16.044 2°53.23 13.6969 0.004568 0.028461 -3.020363
2011-03-21 08:06:10 51°16.059 2°53.216 13.7077 0.004568 0.028461 -3.020363
2011-03-21 08:06:15 51°16.073 2°53.202 13.6608 0.004568 0.028461 -3.020363
2011-03-21 08:06:20 51°16.087 2°53.187 13.5953 0.004568 0.028462 -3.020363
2011-03-21 08:06:25 51°16.102 2°53.173 13.6219 0.004568 0.028462 -3.020363
2011-03-21 08:06:30 51°16.116 2°53.159 13.6 0.004568 0.028462 -3.020363
2011-03-21 08:06:35 51°16.131 2°53.146 13.6692 0.004568 0.028462 -3.020363
2011-03-21 08:06:40 51°16.146 2°53.132 13.6808 0.004568 0.028463 -3.020363
2011-03-21 08:06:45 51°16.16 2°53.12 13.7044 0.004568 0.028463 -3.020363
2011-03-21 08:06:50 51°16.175 2°53.107 13.711 0.004568 0.028463 -3.020363
2011-03-21 08:06:55 51°16.19 2°53.094 13.7145 0.004568 0.028463 -3.020363
2011-03-21 08:07:00 51°16.205 2°53.082 13.7136 0.004568 0.028464 -3.020363
2011-03-21 08:07:05 51°16.219 2°53.069 13.6963 0.004568 0.028464 -3.020363
2011-03-21 08:07:10 51°16.234 2°53.055 13.7126 0.004568 0.028464 -3.020363
2011-03-21 08:07:14 51°16.246 2°53.045 13.7095 0.004568 0.028464 -3.020363
2011-03-21 08:07:20 51°16.263 2°53.029 13.6995 0.004568 0.028465 -3.020363
2011-03-21 08:07:25 51°16.278 2°53.016 13.6685 0.004568 0.028465 -3.020363
2011-03-21 08:07:30 51°16.293 2°53.003 13.6524 0.004568 0.028465 -3.020363
2011-03-21 08:07:34 51°16.304 2°52.992 13.6357 0.004568 0.028465 -3.020363
2011-03-21 08:07:40 51°16.322 2°52.977 13.643 0.004568 0.028466 -3.020363
2011-03-21 08:07:45 51°16.337 2°52.965 13.6566 0.004568 0.028466 -3.020363
2011-03-21 08:07:50 51°16.352 2°52.954 13.7026 0.004568 0.028466 -3.020363
2011-03-21 08:07:54 51°16.364 2°52.945 13.7247 0.004568 0.028466 -3.020363
2011-03-21 08:08:00 51°16.382 2°52.931 13.7253 0.004568 0.028467 -3.020363
2011-03-21 08:08:05 51°16.397 2°52.919 13.7072 0.004568 0.028467 -3.020363
2011-03-21 08:08:10 51°16.412 2°52.908 13.7319 0.004568 0.028467 -3.020363
2011-03-21 08:08:15 51°16.427 2°52.896 13.6962 0.004568 0.028467 -3.020363
2011-03-21 08:08:20 51°16.442 2°52.884 13.7143 0.004568 0.028468 -3.020363
2011-03-21 08:08:25 51°16.456 2°52.871 13.7247 0.004568 0.028468 -3.020363
2011-03-21 08:08:30 51°16.471 2°52.859 13.6944 0.004568 0.028468 -3.020363
2011-03-21 08:08:35 51°16.486 2°52.845 13.6772 0.004568 0.028468 -3.020363
2011-03-21 08:08:40 51°16.5 2°52.833 13.6162 0.004568 0.028469 -3.020363
2011-03-21 08:08:45 51°16.515 2°52.82 13.5789 0.004568 0.028469 -3.020363
2011-03-21 08:08:50 51°16.53 2°52.808 13.5973 0.004568 0.028469 -3.020363
2011-03-21 08:08:55 51°16.546 2°52.797 13.6166 0.004568 0.028469 -3.020363
2011-03-21 08:09:00 51°16.561 2°52.787 13.658 0.004568 0.028469 -3.020363
2011-03-21 08:09:05 51°16.576 2°52.776 13.6811 0.004568 0.02847 -3.020363
2011-03-21 08:09:10 51°16.591 2°52.766 13.6881 0.004568 0.02847 -3.020363
2011-03-21 08:09:15 51°16.607 2°52.757 13.7091 0.004568 0.02847 -3.020363
2011-03-21 08:09:20 51°16.622 2°52.747 13.7098 0.004568 0.02847 -3.020363
2011-03-21 08:09:25 51°16.637 2°52.738 13.7078 0.004568 0.028471 -3.020363
2011-03-21 08:09:30 51°16.653 2°52.728 13.7308 0.004568 0.028471 -3.020363
2011-03-21 08:09:34 51°16.665 2°52.721 13.7224 0.004568 0.028471 -3.020363
2011-03-21 08:09:40 51°16.683 2°52.709 13.7145 0.004568 0.028471 -3.020363
2011-03-21 08:09:45 51°16.698 2°52.699 13.7167 0.004568 0.028471 -3.020363
2011-03-21 08:09:50 51°16.713 2°52.689 13.7172 0.004568 0.028472 -3.020363
2011-03-21 08:09:54 51°16.725 2°52.682 13.7221 0.004568 0.028472 -3.020363
2011-03-21 08:10:00 51°16.743 2°52.669 13.7393 0.004568 0.028472 -3.020363
2011-03-21 08:10:05 51°16.758 2°52.659 13.7297 0.004568 0.028472 -3.020363
2011-03-21 08:10:10 51°16.772 2°52.648 13.7335 0.004568 0.028473 -3.020363
2011-03-21 08:10:14 51°16.783 2°52.64 13.7274 0.004568 0.028473 -3.020363
2011-03-21 08:10:20 51°16.8 2°52.626 13.7139 0.004568 0.028473 -3.020363
2011-03-21 08:10:25 51°16.815 2°52.614 13.714 0.004568 0.028473 -3.020363
2011-03-21 08:10:30 51°16.829 2°52.603 13.6833 0.004568 0.028474 -3.020363
2011-03-21 08:10:34 51°16.84 2°52.593 13.6849 0.004568 0.028474 -3.020363
2011-03-21 08:10:40 51°16.857 2°52.579 13.6404 0.004568 0.028474 -3.020363
2011-03-21 08:10:45 51°16.871 2°52.567 13.568 0.004568 0.028474 -3.020363
2011-03-21 08:10:50 51°16.886 2°52.556 13.5842 0.004568 0.028474 -3.020363
2011-03-21 08:10:54 51°16.897 2°52.548 13.5518 0.004568 0.028474 -3.020363
2011-03-21 08:11:00 51°16.915 2°52.536 13.6287 0.004568 0.028475 -3.020363
2011-03-21 08:11:05 51°16.93 2°52.527 13.6479 0.004568 0.028475 -3.020363
2011-03-21 08:11:10 51°16.945 2°52.519 13.6425 0.004568 0.028475 -3.020363
2011-03-21 08:11:15 51°16.96 2°52.511 13.6775 0.004568 0.028475 -3.020363
2011-03-21 08:11:20 51°16.975 2°52.504 13.6896 0.004568 0.028475 -3.020363
2011-03-21 08:11:25 51°16.991 2°52.497 13.6895 0.004568 0.028476 -3.020363
2011-03-21 08:11:30 51°17.006 2°52.491 13.6901 0.004568 0.028476 -3.020363
2011-03-21 08:11:34 51°17.018 2°52.486 13.7067 0.004568 0.028476 -3.020363
2011-03-21 08:11:40 51°17.036 2°52.478 13.7339 0.004568 0.028477 -3.020363
2011-03-21 08:11:45 51°17.052 2°52.471 13.7267 0.004568 0.028477 -3.020363
2011-03-21 08:11:50 51°17.067 2°52.464 13.7364 0.004568 0.028477 -3.020363
2011-03-21 08:11:54 51°17.079 2°52.458 13.7451 0.004568 0.028477 -3.020363
2011-03-21 08:12:00 51°17.097 2°52.448 13.7512 0.004568 0.028477 -3.020363
2011-03-21 08:12:05 51°17.112 2°52.44 13.7194 0.004568 0.028478 -3.020363
2011-03-21 08:12:10 51°17.127 2°52.43 13.7251 0.004568 0.028478 -3.020363
2011-03-21 08:12:14 51°17.139 2°52.422 13.717 0.004568 0.028478 -3.020363
2011-03-21 08:12:20 51°17.156 2°52.409 13.6868 0.004568 0.028478 -3.020363
2011-03-21 08:12:25 51°17.171 2°52.398 13.7016 0.004568 0.028479 -3.020363
2011-03-21 08:12:30 51°17.185 2°52.386 13.6627 0.004568 0.028479 -3.020363
2011-03-21 08:12:34 51°17.197 2°52.377 13.6709 0.004568 0.028479 -3.020363
2011-03-21 08:12:40 51°17.214 2°52.364 13.6754 0.004568 0.028479 -3.020363
2011-03-21 08:12:45 51°17.229 2°52.353 13.6698 0.004568 0.028479 -3.020363
2011-03-21 08:12:50 51°17.244 2°52.342 13.6418 0.004568 0.028479 -3.020363
2011-03-21 08:12:54 51°17.256 2°52.333 13.6336 0.004568 0.02848 -3.020363
2011-03-21 08:13:00 51°17.273 2°52.32 13.638 0.004568 0.02848 -3.020363
2011-03-21 08:13:05 51°17.288 2°52.31 13.6423 0.004568 0.02848 -3.020363
2011-03-21 08:13:10 51°17.303 2°52.301 13.689 0.004568 0.02848 -3.020363
2011-03-21 08:13:14 51°17.315 2°52.293 13.6854 0.004568 0.02848 -3.020363
2011-03-21 08:13:20 51°17.333 2°52.282 13.6868 0.004568 0.028481 -3.020363
2011-03-21 08:13:25 51°17.348 2°52.273 13.6993 0.004568 0.028481 -3.020363
2011-03-21 08:13:30 51°17.363 2°52.264 13.7071 0.004568 0.028481 -3.020363
2011-03-21 08:13:35 51°17.378 2°52.255 13.7224 0.004568 0.028482 -3.020363
2011-03-21 08:13:40 51°17.393 2°52.246 13.7162 0.004568 0.028482 -3.020363
2011-03-21 08:13:45 51°17.408 2°52.236 13.7233 0.004568 0.028482 -3.020363
2011-03-21 08:13:50 51°17.423 2°52.226 13.7248 0.004568 0.028482 -3.020363
2011-03-21 08:13:55 51°17.438 2°52.216 13.7104 0.004568 0.028482 -3.020363
2011-03-21 08:14:00 51°17.453 2°52.205 13.7255 0.004568 0.028483 -3.020363
2011-03-21 08:14:05 51°17.468 2°52.194 13.7114 0.004568 0.028483 -3.020363
2011-03-21 08:14:10 51°17.482 2°52.183 13.6917 0.004568 0.028483 -3.020363
2011-03-21 08:14:14 51°17.494 2°52.174 13.6892 0.004568 0.028483 -3.020363
2011-03-21 08:14:20 51°17.511 2°52.16 13.6034 0.004568 0.028483 -3.020363
2011-03-21 08:14:25 51°17.526 2°52.15 13.6437 0.004568 0.028483 -3.020363
2011-03-21 08:14:30 51°17.541 2°52.14 13.6741 0.004568 0.028484 -3.020363
2011-03-21 08:14:34 51°17.553 2°52.132 13.6683 0.004568 0.028484 -3.020363
2011-03-21 08:14:40 51°17.57 2°52.12 13.6858 0.004568 0.028484 -3.020363
2011-03-21 08:14:45 51°17.585 2°52.111 13.7008 0.004568 0.028484 -3.020363
2011-03-21 08:14:50 51°17.6 2°52.101 13.7043 0.004568 0.028485 -3.020363
2011-03-21 08:14:54 51°17.612 2°52.094 13.7124 0.004568 0.028485 -3.020363
2011-03-21 08:15:00 51°17.63 2°52.083 13.7037 0.004568 0.028485 -3.020363
2011-03-21 08:15:05 51°17.644 2°52.074 13.6942 0.004568 0.028485 -3.020363
2011-03-21 08:15:10 51°17.66 2°52.064 13.7154 0.004568 0.028486 -3.020363
2011-03-21 08:15:15 51°17.674 2°52.055 13.7269 0.004568 0.028486 -3.020363
2011-03-21 08:15:20 51°17.689 2°52.045 13.7349 0.004568 0.028486 -3.020363
2011-03-21 08:15:25 51°17.704 2°52.035 13.7356 0.004568 0.028486 -3.020363
2011-03-21 08:15:30 51°17.718 2°52.025 13.7381 0.004568 0.028487 -3.020363
2011-03-21 08:15:35 51°17.733 2°52.015 13.7057 0.004568 0.028487 -3.020363
2011-03-21 08:15:40 51°17.748 2°52.005 13.7241 0.004568 0.028487 -3.020363
2011-03-21 08:15:45 51°17.762 2°51.995 13.6908 0.004568 0.028487 -3.020363
2011-03-21 08:15:50 51°17.776 2°51.984 13.6875 0.004568 0.028487 -3.020363
2011-03-21 08:15:55 51°17.79 2°51.972 13.7006 0.004568 0.028488 -3.020363
2011-03-21 08:16:00 51°17.804 2°51.961 13.6698 0.004568 0.028488 -3.020363
2011-03-21 08:16:05 51°17.819 2°51.95 13.682 0.004568 0.028488 -3.020363
2011-03-21 08:16:10 51°17.833 2°51.939 13.6937 0.004568 0.028488 -3.020363
2011-03-21 08:16:15 51°17.848 2°51.928 13.6422 0.004568 0.028488 -3.020363
2011-03-21 08:16:20 51°17.862 2°51.917 13.6604 0.004568 0.028489 -3.020363
2011-03-21 08:16:25 51°17.877 2°51.907 13.6475 0.004568 0.028489 -3.020363
2011-03-21 08:16:30 51°17.892 2°51.896 13.669 0.004568 0.028489 -3.020363
2011-03-21 08:16:34 51°17.904 2°51.888 13.6876 0.004568 0.028489 -3.020363
2011-03-21 08:16:40 51°17.922 2°51.877 13.6816 0.004568 0.02849 -3.020363
2011-03-21 08:16:45 51°17.937 2°51.868 13.6918 0.004568 0.02849 -3.020363
2011-03-21 08:16:50 51°17.953 2°51.859 13.7465 0.004568 0.02849 -3.020363
2011-03-21 08:16:54 51°17.965 2°51.852 13.703 0.004568 0.02849 -3.020363
2011-03-21 08:17:00 51°17.984 2°51.84 13.7226 0.004568 0.028491 -3.020363
2011-03-21 08:17:05 51°17.999 2°51.83 13.6897 0.004568 0.028491 -3.020363
2011-03-21 08:17:10 51°18.015 2°51.82 13.7458 0.004568 0.028491 -3.020363
2011-03-21 08:17:15 51°18.03 2°51.81 13.7386 0.004568 0.028491 -3.020363
2011-03-21 08:17:20 51°18.046 2°51.799 13.7273 0.004568 0.028492 -3.020363
2011-03-21 08:17:25 51°18.061 2°51.788 13.7419 0.004568 0.028492 -3.020363
2011-03-21 08:17:30 51°18.077 2°51.776 13.7059 0.004568 0.028492 -3.020363
2011-03-21 08:17:35 51°18.092 2°51.764 13.6995 0.004568 0.028493 -3.020363
2011-03-21 08:17:40 51°18.107 2°51.753 13.6974 0.004568 0.028493 -3.020363
2011-03-21 08:17:45 51°18.123 2°51.741 13.6644 0.004568 0.028493 -3.020363
2011-03-21 08:17:50 51°18.138 2°51.728 13.6425 0.004568 0.028493 -3.020363
2011-03-21 08:17:55 51°18.153 2°51.716 13.6442 0.004568 0.028493 -3.020363
2011-03-21 08:18:00 51°18.168 2°51.704 13.6642 0.004568 0.028494 -3.020363
2011-03-21 08:18:05 51°18.184 2°51.693 13.6973 0.004568 0.028494 -3.020363
2011-03-21 08:18:10 51°18.2 2°51.682 13.6976 0.004568 0.028494 -3.020363
2011-03-21 08:18:15 51°18.216 2°51.672 13.7108 0.004568 0.028494 -3.020363
2011-03-21 08:18:20 51°18.231 2°51.661 13.723 0.004568 0.028494 -3.020363
2011-03-21 08:18:25 51°18.247 2°51.65 13.745 0.004568 0.028495 -3.020363
2011-03-21 08:18:30 51°18.263 2°51.64 13.7439 0.004568 0.028495 -3.020363
2011-03-21 08:18:34 51°18.276 2°51.631 13.7469 0.004568 0.028495 -3.020363
2011-03-21 08:18:40 51°18.294 2°51.618 13.7112 0.004568 0.028496 -3.020363
2011-03-21 08:18:45 51°18.31 2°51.607 13.7037 0.004568 0.028496 -3.020363
2011-03-21 08:18:50 51°18.326 2°51.595 13.7136 0.004568 0.028496 -3.020363
2011-03-21 08:18:54 51°18.339 2°51.587 13.7274 0.004568 0.028496 -3.020363
2011-03-21 08:19:00 51°18.358 2°51.573 13.7134 0.004568 0.028497 -3.020363
2011-03-21 08:19:05 51°18.373 2°51.562 13.7051 0.004568 0.028497 -3.020363
2011-03-21 08:19:10 51°18.389 2°51.551 13.7155 0.004568 0.028497 -3.020363
2011-03-21 08:19:14 51°18.402 2°51.542 13.7113 0.004568 0.028497 -3.020363
2011-03-21 08:19:20 51°18.421 2°51.529 13.7168 0.004568 0.028497 -3.020363
2011-03-21 08:19:25 51°18.437 2°51.518 13.7358 0.004568 0.028498 -3.020363
2011-03-21 08:19:30 51°18.452 2°51.507 13.7422 0.004568 0.028498 -3.020363
2011-03-21 08:19:35 51°18.468 2°51.495 13.7137 0.004568 0.028498 -3.020363
2011-03-21 08:19:40 51°18.484 2°51.484 13.7252 0.004568 0.028498 -3.020363
2011-03-21 08:19:45 51°18.5 2°51.472 13.7337 0.004568 0.028499 -3.020363
2011-03-21 08:19:50 51°18.515 2°51.46 13.7374 0.004568 0.028499 -3.020363
2011-03-21 08:19:55 51°18.531 2°51.448 13.7297 0.004568 0.028499 -3.020363
2011-03-21 08:20:00 51°18.546 2°51.435 13.6559 0.004568 0.0285 -3.020363
2011-03-21 08:20:05 51°18.562 2°51.422 13.6692 0.004568 0.0285 -3.020363
2011-03-21 08:20:10 51°18.578 2°51.41 13.7159 0.004568 0.0285 -3.020363
2011-03-21 08:20:15 51°18.593 2°51.398 13.6776 0.004568 0.0285 -3.020363
2011-03-21 08:20:20 51°18.609 2°51.385 13.703 0.004568 0.0285 -3.020363
2011-03-21 08:20:25 51°18.625 2°51.373 13.7115 0.004568 0.028501 -3.020363
2011-03-21 08:20:30 51°18.641 2°51.362 13.7274 0.004568 0.028501 -3.020363
2011-03-21 08:20:35 51°18.657 2°51.35 13.7043 0.004568 0.028501 -3.020363
2011-03-21 08:20:40 51°18.672 2°51.338 13.7164 0.004568 0.028502 -3.020363
2011-03-21 08:20:45 51°18.688 2°51.326 13.7293 0.004568 0.028502 -3.020363
2011-03-21 08:20:50 51°18.704 2°51.314 13.7132 0.004568 0.028502 -3.020363
2011-03-21 08:20:54 51°18.717 2°51.304 13.7144 0.004568 0.028502 -3.020363
2011-03-21 08:21:00 51°18.735 2°51.289 13.7071 0.004568 0.028503 -3.020363
2011-03-21 08:21:05 51°18.751 2°51.277 13.7218 0.004568 0.028503 -3.020363
2011-03-21 08:21:10 51°18.767 2°51.265 13.7124 0.004568 0.028503 -3.020363
2011-03-21 08:21:14 51°18.78 2°51.256 13.7298 0.004568 0.028503 -3.020363
2011-03-21 08:21:20 51°18.799 2°51.241 13.73 0.004568 0.028503 -3.020363
2011-03-21 08:21:25 51°18.814 2°51.229 13.7326 0.004568 0.028504 -3.020363
2011-03-21 08:21:30 51°18.83 2°51.217 13.7381 0.004568 0.028504 -3.020363
2011-03-21 08:21:34 51°18.842 2°51.207 13.717 0.004568 0.028504 -3.020363
2011-03-21 08:21:40 51°18.861 2°51.193 13.7511 0.004568 0.028504 -3.020363
2011-03-21 08:21:45 51°18.877 2°51.18 13.748 0.004568 0.028505 -3.020363
2011-03-21 08:21:50 51°18.893 2°51.168 13.7589 0.004568 0.028505 -3.020363
2011-03-21 08:21:55 51°18.908 2°51.155 13.7161 0.004568 0.028505 -3.020363
2011-03-21 08:22:00 51°18.924 2°51.142 13.7183 0.004568 0.028505 -3.020363
2011-03-21 08:22:05 51°18.939 2°51.128 13.6973 0.004568 0.028506 -3.020363
2011-03-21 08:22:10 51°18.954 2°51.115 13.7116 0.004568 0.028506 -3.020363
2011-03-21 08:22:15 51°18.969 2°51.102 13.7035 0.004568 0.028506 -3.020363
2011-03-21 08:22:20 51°18.985 2°51.089 13.7 0.004568 0.028506 -3.020363
2011-03-21 08:22:25 51°19 2°51.076 13.7193 0.004568 0.028507 -3.020363
2011-03-21 08:22:30 51°19.016 2°51.064 13.7217 0.004568 0.028507 -3.020363
2011-03-21 08:22:35 51°19.032 2°51.051 13.7259 0.004568 0.028507 -3.020363
2011-03-21 08:22:40 51°19.047 2°51.039 13.7199 0.004568 0.028507 -3.020363
2011-03-21 08:22:45 51°19.063 2°51.027 13.7563 0.004568 0.028507 -3.020363
2011-03-21 08:22:50 51°19.078 2°51.015 13.7653 0.004568 0.028508 -3.020363
2011-03-21 08:22:55 51°19.094 2°51.002 13.7628 0.004568 0.028508 -3.020363
2011-03-21 08:23:00 51°19.109 2°50.99 13.7603 0.004568 0.028508 -3.020363
2011-03-21 08:23:05 51°19.125 2°50.977 13.7494 0.004568 0.028508 -3.020363
2011-03-21 08:23:10 51°19.14 2°50.964 13.7357 0.004568 0.028508 -3.020363
2011-03-21 08:23:14 51°19.152 2°50.954 13.7291 0.004568 0.028509 -3.020363
2011-03-21 08:23:20 51°19.171 2°50.938 13.7112 0.004568 0.028509 -3.020363
2011-03-21 08:23:25 51°19.186 2°50.925 13.7152 0.004568 0.028509 -3.020363
2011-03-21 08:23:30 51°19.202 2°50.912 13.7296 0.004568 0.028509 -3.020363
2011-03-21 08:23:34 51°19.214 2°50.901 13.7103 0.004568 0.02851 -3.020363
2011-03-21 08:23:40 51°19.233 2°50.886 13.7221 0.004568 0.02851 -3.020363
2011-03-21 08:23:45 51°19.248 2°50.874 13.7135 0.004568 0.02851 -3.020363
2011-03-21 08:23:50 51°19.264 2°50.861 13.7476 0.004568 0.02851 -3.020363
2011-03-21 08:23:55 51°19.28 2°50.849 13.728 0.004568 0.02851 -3.020363
2011-03-21 08:24:00 51°19.295 2°50.836 13.7624 0.004568 0.028511 -3.020363
2011-03-21 08:24:05 51°19.31 2°50.823 13.7076 0.004568 0.028511 -3.020363
2011-03-21 08:24:10 51°19.326 2°50.81 13.739 0.004568 0.028511 -3.020363
2011-03-21 08:24:15 51°19.341 2°50.797 13.7219 0.004568 0.028511 -3.020363
2011-03-21 08:24:20 51°19.356 2°50.784 13.7218 0.004568 0.028511 -3.020363
2011-03-21 08:24:25 51°19.372 2°50.771 13.6972 0.004568 0.028512 -3.020363
2011-03-21 08:24:30 51°19.387 2°50.758 13.7221 0.004568 0.028512 -3.020363
2011-03-21 08:24:35 51°19.403 2°50.745 13.7052 0.004568 0.028512 -3.020363
2011-03-21 08:24:40 51°19.419 2°50.733 13.7334 0.004568 0.028512 -3.020363
2011-03-21 08:24:45 51°19.434 2°50.721 13.7495 0.004568 0.028512 -3.020363
2011-03-21 08:24:50 51°19.45 2°50.709 13.752 0.004568 0.028513 -3.020363
2011-03-21 08:24:55 51°19.466 2°50.698 13.7546 0.004568 0.028513 -3.020363
2011-03-21 08:25:00 51°19.481 2°50.686 13.7644 0.004568 0.028513 -3.020363
2011-03-21 08:25:05 51°19.497 2°50.675 13.7462 0.004568 0.028513 -3.020363
2011-03-21 08:25:10 51°19.512 2°50.663 13.752 0.004568 0.028513 -3.020363
2011-03-21 08:25:14 51°19.525 2°50.653 13.7416 0.004568 0.028513 -3.020363
2011-03-21 08:25:20 51°19.544 2°50.639 13.7594 0.004568 0.028514 -3.020363
2011-03-21 08:25:25 51°19.56 2°50.627 13.7403 0.004568 0.028514 -3.020363
2011-03-21 08:25:30 51°19.576 2°50.615 13.7316 0.004568 0.028514 -3.020363
2011-03-21 08:25:34 51°19.588 2°50.605 13.7304 0.004568 0.028514 -3.020363
2011-03-21 08:25:40 51°19.606 2°50.59 13.7345 0.004568 0.028514 -3.020363
2011-03-21 08:25:45 51°19.623 2°50.579 13.7036 0.004568 0.028514 -3.020363
2011-03-21 08:25:50 51°19.638 2°50.567 13.7529 0.004568 0.028515 -3.020363
2011-03-21 08:25:54 51°19.651 2°50.558 13.7569 0.004568 0.028515 -3.020363
2011-03-21 08:26:00 51°19.671 2°50.545 13.76 0.004568 0.028515 -3.020363
2011-03-21 08:26:05 51°19.686 2°50.533 13.7765 0.004568 0.028515 -3.020363
2011-03-21 08:26:10 51°19.702 2°50.521 13.7715 0.004568 0.028515 -3.020363
2011-03-21 08:26:14 51°19.715 2°50.512 13.7609 0.004568 0.028515 -3.020363
2011-03-21 08:26:20 51°19.734 2°50.497 13.7456 0.004568 0.028516 -3.020363
2011-03-21 08:26:25 51°19.749 2°50.484 13.7212 0.004568 0.028516 -3.020363
2011-03-21 08:26:30 51°19.765 2°50.471 13.7129 0.004568 0.028516 -3.020363
2011-03-21 08:26:34 51°19.778 2°50.461 13.7119 0.004568 0.028516 -3.020363
2011-03-21 08:26:40 51°19.797 2°50.447 13.7108 0.004568 0.028516 -3.020363
2011-03-21 08:26:45 51°19.813 2°50.435 13.6994 0.004568 0.028516 -3.020363
2011-03-21 08:26:50 51°19.83 2°50.423 13.7437 0.004568 0.028517 -3.020363
2011-03-21 08:26:54 51°19.842 2°50.414 13.7649 0.004568 0.028517 -3.020363
2011-03-21 08:27:00 51°19.862 2°50.4 13.7809 0.004568 0.028517 -3.020363
2011-03-21 08:27:05 51°19.878 2°50.388 13.7781 0.004568 0.028517 -3.020363
2011-03-21 08:27:10 51°19.894 2°50.376 13.7676 0.004568 0.028517 -3.020363
2011-03-21 08:27:15 51°19.91 2°50.363 13.7349 0.004568 0.028517 -3.020363
2011-03-21 08:27:20 51°19.926 2°50.35 13.7468 0.004568 0.028518 -3.020363
2011-03-21 08:27:25 51°19.942 2°50.338 13.7085 0.004568 0.028518 -3.020363
2011-03-21 08:27:30 51°19.958 2°50.325 13.7546 0.004568 0.028518 -3.020363
2011-03-21 08:27:34 51°19.97 2°50.315 13.7299 0.004568 0.028518 -3.020363
2011-03-21 08:27:40 51°19.989 2°50.3 13.7353 0.004568 0.028518 -3.020363
2011-03-21 08:27:45 51°20.005 2°50.287 13.761 0.004568 0.028518 -3.020363
2011-03-21 08:27:50 51°20.021 2°50.274 13.7065 0.004568 0.028519 -3.020363
2011-03-21 08:27:54 51°20.034 2°50.264 13.7387 0.004568 0.028519 -3.020363
2011-03-21 08:28:00 51°20.053 2°50.249 13.7564 0.004568 0.028519 -3.020363
2011-03-21 08:28:05 51°20.069 2°50.236 13.7517 0.004568 0.028519 -3.020363
2011-03-21 08:28:10 51°20.085 2°50.224 13.7576 0.004568 0.028519 -3.020363
2011-03-21 08:28:14 51°20.098 2°50.214 13.7607 0.004568 0.028519 -3.020363
2011-03-21 08:28:20 51°20.117 2°50.199 13.7502 0.004568 0.02852 -3.020363
2011-03-21 08:28:25 51°20.133 2°50.186 13.7502 0.004568 0.02852 -3.020363
2011-03-21 08:28:30 51°20.149 2°50.173 13.7523 0.004568 0.02852 -3.020363
2011-03-21 08:28:34 51°20.162 2°50.162 13.7541 0.004568 0.02852 -3.020363
2011-03-21 08:28:40 51°20.181 2°50.147 13.765 0.004568 0.02852 -3.020363
2011-03-21 08:28:45 51°20.197 2°50.134 13.7604 0.004568 0.02852 -3.020363
2011-03-21 08:28:50 51°20.213 2°50.121 13.7432 0.004568 0.02852 -3.020363
2011-03-21 08:28:55 51°20.229 2°50.108 13.763 0.004568 0.028521 -3.020363
2011-03-21 08:29:00 51°20.245 2°50.095 13.7531 0.004568 0.028521 -3.020363
2011-03-21 08:29:05 51°20.261 2°50.082 13.7422 0.004568 0.028521 -3.020363
2011-03-21 08:29:10 51°20.277 2°50.069 13.7491 0.004568 0.028521 -3.020363
2011-03-21 08:29:15 51°20.293 2°50.055 13.7253 0.004568 0.028521 -3.020363
2011-03-21 08:29:20 51°20.309 2°50.042 13.7391 0.004568 0.028521 -3.020363
2011-03-21 08:29:25 51°20.325 2°50.029 13.7338 0.004568 0.028521 -3.020363
2011-03-21 08:29:30 51°20.341 2°50.016 13.7187 0.004568 0.028522 -3.020363
2011-03-21 08:29:34 51°20.354 2°50.006 13.7345 0.004568 0.028522 -3.020363
2011-03-21 08:29:40 51°20.374 2°49.991 13.7559 0.004568 0.028522 -3.020363
2011-03-21 08:29:45 51°20.39 2°49.979 13.7385 0.004568 0.028522 -3.020363
2011-03-21 08:29:50 51°20.406 2°49.967 13.7373 0.004568 0.028522 -3.020363
2011-03-21 08:29:54 51°20.419 2°49.957 13.7494 0.004568 0.028522 -3.020363
2011-03-21 08:30:00 51°20.439 2°49.943 13.7588 0.004568 0.028523 -3.020363
2011-03-21 08:30:05 51°20.455 2°49.932 13.7661 0.004568 0.028523 -3.020363
2011-03-21 08:30:10 51°20.472 2°49.92 13.7729 0.004568 0.028523 -3.020363
2011-03-21 08:30:14 51°20.485 2°49.911 13.7867 0.004568 0.028523 -3.020363
2011-03-21 08:30:20 51°20.505 2°49.897 13.7851 0.004568 0.028523 -3.020363
2011-03-21 08:30:25 51°20.521 2°49.886 13.7783 0.004568 0.028523 -3.020363
2011-03-21 08:30:30 51°20.538 2°49.875 13.7858 0.004568 0.028523 -3.020363
2011-03-21 08:30:34 51°20.551 2°49.865 13.7876 0.004568 0.028524 -3.020363
2011-03-21 08:30:40 51°20.571 2°49.851 13.7585 0.004568 0.028524 -3.020363
2011-03-21 08:30:45 51°20.587 2°49.839 13.7619 0.004568 0.028524 -3.020363
2011-03-21 08:30:50 51°20.604 2°49.827 13.7594 0.004568 0.028524 -3.020363
2011-03-21 08:30:55 51°20.62 2°49.815 13.7499 0.004568 0.028524 -3.020363
2011-03-21 08:31:00 51°20.637 2°49.803 13.7762 0.004568 0.028524 -3.020363
2011-03-21 08:31:05 51°20.654 2°49.791 13.7817 0.004568 0.028524 -3.020363
2011-03-21 08:31:10 51°20.67 2°49.78 13.7878 0.004568 0.028524 -3.020363
2011-03-21 08:31:15 51°20.687 2°49.768 13.7826 0.004568 0.028524 -3.020363
2011-03-21 08:31:20 51°20.703 2°49.756 13.7533 0.004568 0.028525 -3.020363
2011-03-21 08:31:25 51°20.719 2°49.744 13.7511 0.004568 0.028525 -3.020363
2011-03-21 08:31:30 51°20.736 2°49.731 13.7494 0.004568 0.028525 -3.020363
2011-03-21 08:31:35 51°20.752 2°49.719 13.7478 0.004568 0.028525 -3.020363
2011-03-21 08:31:40 51°20.769 2°49.708 13.7645 0.004568 0.028525 -3.020363
2011-03-21 08:31:45 51°20.786 2°49.697 13.7868 0.004568 0.028525 -3.020363
2011-03-21 08:31:50 51°20.802 2°49.685 13.7598 0.004568 0.028525 -3.020363
2011-03-21 08:31:54 51°20.815 2°49.675 13.7934 0.004568 0.028526 -3.020363
2011-03-21 08:32:00 51°20.835 2°49.662 13.7916 0.004568 0.028526 -3.020363
2011-03-21 08:32:05 51°20.852 2°49.651 13.7982 0.004568 0.028526 -3.020363
2011-03-21 08:32:10 51°20.869 2°49.639 13.7996 0.004568 0.028526 -3.020363
2011-03-21 08:32:14 51°20.882 2°49.63 13.7979 0.004568 0.028526 -3.020363
2011-03-21 08:32:20 51°20.902 2°49.616 13.7789 0.004568 0.028526 -3.020363
2011-03-21 08:32:25 51°20.918 2°49.604 13.7919 0.004568 0.028526 -3.020363
2011-03-21 08:32:30 51°20.935 2°49.592 13.7617 0.004568 0.028526 -3.020363
2011-03-21 08:32:34 51°20.948 2°49.583 13.7812 0.004568 0.028527 -3.020363
2011-03-21 08:32:40 51°20.968 2°49.568 13.7794 0.004568 0.028527 -3.020363
2011-03-21 08:32:45 51°20.984 2°49.555 13.777 0.004568 0.028527 -3.020363
2011-03-21 08:32:50 51°21.001 2°49.543 13.7625 0.004568 0.028527 -3.020363
2011-03-21 08:32:55 51°21.017 2°49.531 13.7443 0.004568 0.028527 -3.020363
2011-03-21 08:33:00 51°21.034 2°49.519 13.7592 0.004568 0.028527 -3.020363
2011-03-21 08:33:05 51°21.05 2°49.508 13.781 0.004568 0.028527 -3.020363
2011-03-21 08:33:10 51°21.067 2°49.496 13.7801 0.004568 0.028528 -3.020363
2011-03-21 08:33:15 51°21.083 2°49.485 13.8128 0.004568 0.028528 -3.020363
2011-03-21 08:33:20 51°21.1 2°49.473 13.7812 0.004568 0.028528 -3.020363
2011-03-21 08:33:25 51°21.117 2°49.462 13.7967 0.004568 0.028528 -3.020363
2011-03-21 08:33:30 51°21.133 2°49.45 13.8083 0.004568 0.028528 -3.020363
2011-03-21 08:33:34 51°21.146 2°49.441 13.7822 0.004568 0.028528 -3.020363
2011-03-21 08:33:40 51°21.166 2°49.427 13.7926 0.004568 0.028528 -3.020363
2011-03-21 08:33:45 51°21.183 2°49.415 13.7636 0.004568 0.028528 -3.020363
2011-03-21 08:33:50 51°21.2 2°49.404 13.7605 0.004568 0.028528 -3.020363
2011-03-21 08:33:54 51°21.213 2°49.394 13.793 0.004568 0.028529 -3.020363
2011-03-21 08:34:00 51°21.233 2°49.38 13.7787 0.004568 0.028529 -3.020363
2011-03-21 08:34:05 51°21.249 2°49.369 13.8132 0.004568 0.028529 -3.020363
2011-03-21 08:34:10 51°21.266 2°49.357 13.8037 0.004568 0.028529 -3.020363
2011-03-21 08:34:14 51°21.279 2°49.348 13.8086 0.004568 0.028529 -3.020363
2011-03-21 08:34:20 51°21.299 2°49.334 13.7617 0.004568 0.028529 -3.020363
2011-03-21 08:34:25 51°21.316 2°49.322 13.7843 0.004568 0.028529 -3.020363
2011-03-21 08:34:30 51°21.333 2°49.311 13.7916 0.004568 0.028529 -3.020363
2011-03-21 08:34:34 51°21.346 2°49.302 13.7915 0.004568 0.028529 -3.020363
2011-03-21 08:34:40 51°21.366 2°49.289 13.8236 0.004568 0.02853 -3.020363
2011-03-21 08:34:45 51°21.383 2°49.278 13.827 0.004568 0.02853 -3.020363
2011-03-21 08:34:50 51°21.399 2°49.266 13.8332 0.004568 0.02853 -3.020363
2011-03-21 08:34:54 51°21.413 2°49.257 13.8112 0.004568 0.02853 -3.020363
2011-03-21 08:35:00 51°21.432 2°49.243 13.8316 0.004568 0.02853 -3.020363
2011-03-21 08:35:05 51°21.449 2°49.231 13.7895 0.004568 0.02853 -3.020363
2011-03-21 08:35:10 51°21.465 2°49.219 13.7841 0.004568 0.02853 -3.020363
2011-03-21 08:35:15 51°21.482 2°49.207 13.7818 0.004568 0.02853 -3.020363
2011-03-21 08:35:20 51°21.498 2°49.196 13.7842 0.004568 0.028531 -3.020363
2011-03-21 08:35:25 51°21.515 2°49.185 13.8203 0.004568 0.028531 -3.020363
2011-03-21 08:35:30 51°21.532 2°49.174 13.8271 0.004568 0.028531 -3.020363
2011-03-21 08:35:35 51°21.549 2°49.163 13.8157 0.004568 0.028531 -3.020363
2011-03-21 08:35:40 51°21.566 2°49.152 13.8203 0.004568 0.028531 -3.020363
2011-03-21 08:35:45 51°21.582 2°49.141 13.8428 0.004568 0.028531 -3.020363
2011-03-21 08:35:50 51°21.599 2°49.13 13.7824 0.004568 0.028531 -3.020363
2011-03-21 08:35:55 51°21.616 2°49.118 13.8288 0.004568 0.028531 -3.020363
2011-03-21 08:36:00 51°21.632 2°49.107 13.7838 0.004568 0.028531 -3.020363
2011-03-21 08:36:05 51°21.649 2°49.095 13.8183 0.004568 0.028532 -3.020363
2011-03-21 08:36:10 51°21.666 2°49.083 13.8156 0.004568 0.028532 -3.020363
2011-03-21 08:36:15 51°21.682 2°49.071 13.7939 0.004568 0.028532 -3.020363
2011-03-21 08:36:20 51°21.699 2°49.059 13.7958 0.004568 0.028532 -3.020363
2011-03-21 08:36:25 51°21.716 2°49.048 13.8081 0.004568 0.028532 -3.020363
2011-03-21 08:36:30 51°21.732 2°49.036 13.8105 0.004568 0.028532 -3.020363
2011-03-21 08:36:34 51°21.746 2°49.027 13.812 0.004568 0.028532 -3.020363
2011-03-21 08:36:40 51°21.766 2°49.013 13.8056 0.004568 0.028532 -3.020363
2011-03-21 08:36:45 51°21.783 2°49.002 13.8196 0.004568 0.028532 -3.020363
2011-03-21 08:36:50 51°21.799 2°48.991 13.8397 0.004568 0.028533 -3.020363
2011-03-21 08:36:54 51°21.813 2°48.982 13.8319 0.004568 0.028533 -3.020363
2011-03-21 08:37:00 51°21.833 2°48.968 13.827 0.004568 0.028533 -3.020363
2011-03-21 08:37:05 51°21.85 2°48.956 13.8178 0.004568 0.028533 -3.020363
2011-03-21 08:37:10 51°21.866 2°48.944 13.8062 0.004568 0.028533 -3.020363
2011-03-21 08:37:14 51°21.88 2°48.935 13.8183 0.004568 0.028533 -3.020363
2011-03-21 08:37:20 51°21.9 2°48.921 13.8183 0.004568 0.028533 -3.020363
2011-03-21 08:37:25 51°21.917 2°48.91 13.8137 0.004568 0.028533 -3.020363
2011-03-21 08:37:30 51°21.934 2°48.899 13.8271 0.004568 0.028533 -3.020363
2011-03-21 08:37:34 51°21.947 2°48.89 13.8491 0.004568 0.028534 -3.020363
2011-03-21 08:37:40 51°21.967 2°48.877 13.8203 0.004568 0.028534 -3.020363
2011-03-21 08:37:45 51°21.984 2°48.865 13.8359 0.004568 0.028534 -3.020363
2011-03-21 08:37:50 51°22.001 2°48.854 13.8442 0.004568 0.028534 -3.020363
2011-03-21 08:37:54 51°22.014 2°48.845 13.8021 0.004568 0.028534 -3.020363
2011-03-21 08:38:00 51°22.035 2°48.831 13.8261 0.004568 0.028534 -3.020363
2011-03-21 08:38:05 51°22.052 2°48.819 13.8248 0.004568 0.028534 -3.020363
2011-03-21 08:38:10 51°22.068 2°48.807 13.8332 0.004568 0.028534 -3.020363
2011-03-21 08:38:15 51°22.085 2°48.795 13.8332 0.004568 0.028534 -3.020363
2011-03-21 08:38:20 51°22.102 2°48.783 13.8048 0.004568 0.028535 -3.020363
2011-03-21 08:38:25 51°22.119 2°48.772 13.8152 0.004568 0.028535 -3.020363
2011-03-21 08:38:30 51°22.136 2°48.76 13.7421 0.004568 0.028535 -3.020363
2011-03-21 08:38:34 51°22.15 2°48.752 13.5648 0.004568 0.028535 -3.020363
2011-03-21 08:38:40 51°22.17 2°48.74 13.6868 0.004568 0.028535 -3.020363
2011-03-21 08:38:45 51°22.188 2°48.732 13.688 0.004568 0.028535 -3.020363
2011-03-21 08:38:50 51°22.205 2°48.725 13.7332 0.004568 0.028536 -3.020363
2011-03-21 08:38:54 51°22.219 2°48.721 13.7267 0.004568 0.028536 -3.020363
2011-03-21 08:39:00 51°22.24 2°48.714 13.7473 0.004568 0.028536 -3.020363
2011-03-21 08:39:05 51°22.258 2°48.709 13.7558 0.004568 0.028536 -3.020363
2011-03-21 08:39:10 51°22.275 2°48.705 13.719 0.004568 0.028536 -3.020363
2011-03-21 08:39:14 51°22.289 2°48.702 13.7465 0.004568 0.028536 -3.020363
2011-03-21 08:39:20 51°22.31 2°48.701 13.777 0.004568 0.028536 -3.020363
2011-03-21 08:39:25 51°22.327 2°48.699 13.7832 0.004568 0.028537 -3.020363
2011-03-21 08:39:30 51°22.344 2°48.699 13.8049 0.004568 0.028537 -3.020363
2011-03-21 08:39:34 51°22.357 2°48.699 13.8048 0.004568 0.028537 -3.020363
2011-03-21 08:39:40 51°22.377 2°48.698 13.8093 0.004568 0.028537 -3.020363
2011-03-21 08:39:45 51°22.394 2°48.697 13.754 0.004568 0.028537 -3.020363
2011-03-21 08:39:50 51°22.411 2°48.696 13.7801 0.004568 0.028537 -3.020363
2011-03-21 08:39:54 51°22.424 2°48.695 13.7855 0.004568 0.028537 -3.020363
2011-03-21 08:40:00 51°22.444 2°48.695 13.7973 0.004568 0.028537 -3.020363
2011-03-21 08:40:05 51°22.46 2°48.695 13.803 0.004568 0.028538 -3.020363
2011-03-21 08:40:10 51°22.477 2°48.695 13.821 0.004568 0.028538 -3.020363
2011-03-21 08:40:15 51°22.494 2°48.695 13.8251 0.004568 0.028538 -3.020363
2011-03-21 08:40:20 51°22.51 2°48.694 13.8121 0.004568 0.028538 -3.020363
2011-03-21 08:40:25 51°22.527 2°48.694 13.8187 0.004568 0.028538 -3.020363
2011-03-21 08:40:30 51°22.543 2°48.693 13.8297 0.004568 0.028538 -3.020363
2011-03-21 08:40:35 51°22.56 2°48.692 13.8151 0.004568 0.028538 -3.020363
2011-03-21 08:40:40 51°22.576 2°48.691 13.8057 0.004568 0.028538 -3.020363
2011-03-21 08:40:45 51°22.593 2°48.69 13.8134 0.004568 0.028538 -3.020363
2011-03-21 08:40:50 51°22.609 2°48.688 13.8112 0.004568 0.028539 -3.020363
2011-03-21 08:40:54 51°22.622 2°48.687 13.8038 0.004568 0.028539 -3.020363
2011-03-21 08:41:00 51°22.642 2°48.686 13.7962 0.004568 0.028539 -3.020363
2011-03-21 08:41:05 51°22.658 2°48.684 13.8117 0.004568 0.028539 -3.020363
2011-03-21 08:41:10 51°22.674 2°48.684 13.8267 0.004568 0.028539 -3.020363
2011-03-21 08:41:14 51°22.687 2°48.683 13.8098 0.004568 0.028539 -3.020363
2011-03-21 08:41:20 51°22.707 2°48.682 13.8362 0.004568 0.028539 -3.020363
2011-03-21 08:41:25 51°22.723 2°48.68 13.8333 0.004568 0.028539 -3.020363
2011-03-21 08:41:30 51°22.739 2°48.679 13.8503 0.004568 0.02854 -3.020363
2011-03-21 08:41:34 51°22.752 2°48.678 13.8405 0.004568 0.02854 -3.020363
2011-03-21 08:41:40 51°22.772 2°48.675 13.7972 0.004568 0.02854 -3.020363
2011-03-21 08:41:45 51°22.788 2°48.673 13.8309 0.004568 0.02854 -3.020363
2011-03-21 08:41:50 51°22.804 2°48.671 13.8279 0.004568 0.02854 -3.020363
2011-03-21 08:41:54 51°22.817 2°48.669 13.805 0.004568 0.02854 -3.020363
2011-03-21 08:42:00 51°22.837 2°48.666 13.7621 0.004568 0.02854 -3.020363
2011-03-21 08:42:05 51°22.853 2°48.665 13.787 0.004568 0.02854 -3.020363
2011-03-21 08:42:10 51°22.869 2°48.663 13.8384 0.004568 0.028541 -3.020363
2011-03-21 08:42:14 51°22.882 2°48.662 13.851 0.004568 0.028541 -3.020363
2011-03-21 08:42:20 51°22.902 2°48.66 13.8204 0.004568 0.028541 -3.020363
2011-03-21 08:42:25 51°22.918 2°48.659 13.8305 0.004568 0.028541 -3.020363
2011-03-21 08:42:30 51°22.934 2°48.657 13.8482 0.004568 0.028541 -3.020363
2011-03-21 08:42:34 51°22.947 2°48.656 13.8187 0.004568 0.028541 -3.020363
2011-03-21 08:42:40 51°22.967 2°48.654 13.8144 0.004568 0.028541 -3.020363
2011-03-21 08:42:45 51°22.983 2°48.652 13.8147 0.004568 0.028541 -3.020363
2011-03-21 08:42:50 51°22.999 2°48.65 13.8099 0.004568 0.028541 -3.020363
2011-03-21 08:42:55 51°23.016 2°48.648 13.825 0.004568 0.028542 -3.020363
2011-03-21 08:43:00 51°23.032 2°48.647 13.8463 0.004568 0.028542 -3.020363
2011-03-21 08:43:05 51°23.048 2°48.645 13.8476 0.004568 0.028542 -3.020363
2011-03-21 08:43:10 51°23.064 2°48.643 13.8298 0.004568 0.028542 -3.020363
2011-03-21 08:43:14 51°23.078 2°48.641 13.8039 0.004568 0.028542 -3.020363
2011-03-21 08:43:20 51°23.097 2°48.639 13.832 0.004568 0.028542 -3.020363
2011-03-21 08:43:25 51°23.114 2°48.637 13.8656 0.004568 0.028542 -3.020363
2011-03-21 08:43:30 51°23.13 2°48.635 13.9513 0.004568 0.028542 -3.020363
2011-03-21 08:43:34 51°23.143 2°48.634 13.9774 0.004568 0.028543 -3.020363
2011-03-21 08:43:40 51°23.162 2°48.628 13.9354 0.004568 0.028543 -3.020363
2011-03-21 08:43:45 51°23.178 2°48.62 13.9117 0.004568 0.028543 -3.020363
2011-03-21 08:43:50 51°23.194 2°48.611 13.8395 0.004568 0.028543 -3.020363
2011-03-21 08:43:54 51°23.207 2°48.602 13.8528 0.004568 0.028543 -3.020363
2011-03-21 08:44:00 51°23.225 2°48.589 13.8146 0.004568 0.028543 -3.020363
2011-03-21 08:44:05 51°23.241 2°48.576 13.8227 0.004568 0.028543 -3.020363
2011-03-21 08:44:10 51°23.256 2°48.563 13.8079 0.004568 0.028543 -3.020363
2011-03-21 08:44:14 51°23.268 2°48.553 13.8027 0.004568 0.028543 -3.020363
2011-03-21 08:44:20 51°23.287 2°48.538 13.7914 0.004568 0.028544 -3.020363
2011-03-21 08:44:24 51°23.3 2°48.528 13.823 0.004568 0.028544 -3.020363
2011-03-21 08:44:30 51°23.319 2°48.513 13.8252 0.004568 0.028544 -3.020363
2011-03-21 08:44:34 51°23.331 2°48.504 13.833 0.004568 0.028544 -3.020363
2011-03-21 08:44:40 51°23.35 2°48.49 13.8578 0.004568 0.028544 -3.020363
2011-03-21 08:44:45 51°23.366 2°48.479 13.8662 0.004568 0.028544 -3.020363
2011-03-21 08:44:50 51°23.382 2°48.468 13.8638 0.004568 0.028544 -3.020363
2011-03-21 08:44:55 51°23.398 2°48.455 13.8541 0.004568 0.028544 -3.020363
2011-03-21 08:45:00 51°23.414 2°48.443 13.8847 0.004568 0.028544 -3.020363
2011-03-21 08:45:05 51°23.429 2°48.43 13.8604 0.004568 0.028544 -3.020363
2011-03-21 08:45:10 51°23.445 2°48.416 13.8676 0.004568 0.028544 -3.020363
2011-03-21 08:45:15 51°23.46 2°48.401 13.8563 0.004568 0.028545 -3.020363
2011-03-21 08:45:20 51°23.475 2°48.387 13.8431 0.004568 0.028545 -3.020363
2011-03-21 08:45:25 51°23.491 2°48.372 13.8398 0.004568 0.028545 -3.020363
2011-03-21 08:45:30 51°23.506 2°48.356 13.8286 0.004568 0.028545 -3.020363
2011-03-21 08:45:34 51°23.518 2°48.344 13.8317 0.004568 0.028545 -3.020363
2011-03-21 08:45:40 51°23.536 2°48.326 13.8249 0.004568 0.028545 -3.020363
2011-03-21 08:45:45 51°23.551 2°48.311 13.8214 0.004568 0.028545 -3.020363
2011-03-21 08:45:50 51°23.567 2°48.296 13.8517 0.004568 0.028545 -3.020363
2011-03-21 08:45:54 51°23.579 2°48.285 13.819 0.004568 0.028545 -3.020363
2011-03-21 08:46:00 51°23.597 2°48.267 13.8486 0.004568 0.028545 -3.020363
2011-03-21 08:46:05 51°23.613 2°48.253 13.8791 0.004568 0.028546 -3.020363
2011-03-21 08:46:10 51°23.628 2°48.239 13.8708 0.004568 0.028546 -3.020363
2011-03-21 08:46:14 51°23.64 2°48.227 13.8793 0.004568 0.028546 -3.020363
2011-03-21 08:46:20 51°23.658 2°48.209 13.8504 0.004568 0.028546 -3.020363
2011-03-21 08:46:25 51°23.673 2°48.195 13.8731 0.004568 0.028546 -3.020363
2011-03-21 08:46:30 51°23.688 2°48.18 13.8439 0.004568 0.028546 -3.020363
2011-03-21 08:46:35 51°23.703 2°48.165 13.8241 0.004568 0.028546 -3.020363
2011-03-21 08:46:40 51°23.718 2°48.15 13.8599 0.004568 0.028546 -3.020363
2011-03-21 08:46:45 51°23.733 2°48.136 13.8938 0.004568 0.028546 -3.020363
2011-03-21 08:46:50 51°23.748 2°48.121 13.911 0.004568 0.028546 -3.020363
2011-03-21 08:46:55 51°23.763 2°48.106 13.9062 0.004568 0.028546 -3.020363
2011-03-21 08:47:00 51°23.778 2°48.09 13.8932 0.004568 0.028547 -3.020363
2011-03-21 08:47:05 51°23.792 2°48.073 13.8969 0.004568 0.028547 -3.020363
2011-03-21 08:47:10 51°23.806 2°48.057 13.8499 0.004568 0.028547 -3.020363
2011-03-21 08:47:15 51°23.82 2°48.039 13.8557 0.004568 0.028547 -3.020363
2011-03-21 08:47:20 51°23.835 2°48.023 13.8407 0.004568 0.028547 -3.020363
2011-03-21 08:47:25 51°23.849 2°48.006 13.8995 0.004568 0.028547 -3.020363
2011-03-21 08:47:30 51°23.864 2°47.99 13.8538 0.004568 0.028547 -3.020363
2011-03-21 08:47:34 51°23.875 2°47.977 13.8736 0.004568 0.028547 -3.020363
2011-03-21 08:47:40 51°23.892 2°47.958 13.8893 0.004568 0.028547 -3.020363
2011-03-21 08:47:45 51°23.907 2°47.942 13.913 0.004568 0.028547 -3.020363
2011-03-21 08:47:50 51°23.921 2°47.925 13.9091 0.004568 0.028547 -3.020363
2011-03-21 08:47:54 51°23.933 2°47.912 13.9159 0.004568 0.028548 -3.020363
2011-03-21 08:48:00 51°23.95 2°47.892 13.8979 0.004568 0.028548 -3.020363
2011-03-21 08:48:05 51°23.964 2°47.875 13.8418 0.004568 0.028548 -3.020363
2011-03-21 08:48:10 51°23.978 2°47.858 13.853 0.004568 0.028548 -3.020363
2011-03-21 08:48:14 51°23.989 2°47.845 13.8621 0.004568 0.028548 -3.020363
2011-03-21 08:48:20 51°24.007 2°47.825 13.8944 0.004568 0.028548 -3.020363
2011-03-21 08:48:25 51°24.021 2°47.808 13.8484 0.004568 0.028548 -3.020363
2011-03-21 08:48:30 51°24.035 2°47.792 13.8707 0.004568 0.028548 -3.020363
2011-03-21 08:48:34 51°24.047 2°47.778 13.8705 0.004568 0.028549 -3.020363
2011-03-21 08:48:40 51°24.064 2°47.759 13.87 0.004568 0.028549 -3.020363
2011-03-21 08:48:45 51°24.078 2°47.742 13.8836 0.004568 0.028549 -3.020363
2011-03-21 08:48:50 51°24.093 2°47.726 13.8872 0.004568 0.028549 -3.020363
2011-03-21 08:48:55 51°24.107 2°47.71 13.8923 0.004568 0.028549 -3.020363
2011-03-21 08:49:00 51°24.122 2°47.694 13.9062 0.004568 0.028549 -3.020363
2011-03-21 08:49:05 51°24.137 2°47.678 13.8909 0.004568 0.028549 -3.020363
2011-03-21 08:49:10 51°24.151 2°47.662 13.8963 0.004568 0.028549 -3.020363
2011-03-21 08:49:15 51°24.166 2°47.646 13.9009 0.004568 0.028549 -3.020363
2011-03-21 08:49:20 51°24.18 2°47.63 13.9106 0.004568 0.028549 -3.020363
2011-03-21 08:49:25 51°24.195 2°47.613 13.9186 0.004568 0.02855 -3.020363
2011-03-21 08:49:30 51°24.209 2°47.597 13.9001 0.004568 0.02855 -3.020363
2011-03-21 08:49:35 51°24.223 2°47.58 13.8947 0.004568 0.02855 -3.020363
2011-03-21 08:49:40 51°24.238 2°47.564 13.8781 0.004568 0.02855 -3.020363
2011-03-21 08:49:45 51°24.252 2°47.548 13.9104 0.004568 0.02855 -3.020363
2011-03-21 08:49:50 51°24.267 2°47.531 13.9223 0.004568 0.02855 -3.020363
2011-03-21 08:49:55 51°24.281 2°47.515 13.9194 0.004568 0.02855 -3.020363
2011-03-21 08:50:00 51°24.295 2°47.498 13.915 0.004568 0.02855 -3.020363
2011-03-21 08:50:05 51°24.31 2°47.481 13.8941 0.004568 0.02855 -3.020363
2011-03-21 08:50:10 51°24.324 2°47.464 13.9252 0.004568 0.02855 -3.020363
2011-03-21 08:50:14 51°24.336 2°47.451 13.9044 0.004568 0.028551 -3.020363
2011-03-21 08:50:20 51°24.353 2°47.43 13.9078 0.004568 0.028551 -3.020363
2011-03-21 08:50:25 51°24.367 2°47.413 13.9211 0.004568 0.028551 -3.020363
2011-03-21 08:50:30 51°24.381 2°47.396 13.8892 0.004568 0.028551 -3.020363
2011-03-21 08:50:34 51°24.392 2°47.382 13.8816 0.004568 0.028551 -3.020363
2011-03-21 08:50:40 51°24.41 2°47.363 13.9001 0.004568 0.028551 -3.020363
2011-03-21 08:50:45 51°24.424 2°47.346 13.9273 0.004568 0.028551 -3.020363
2011-03-21 08:50:50 51°24.439 2°47.329 13.9141 0.004568 0.028551 -3.020363
2011-03-21 08:50:54 51°24.45 2°47.316 13.942 0.004568 0.028551 -3.020363
2011-03-21 08:51:00 51°24.468 2°47.295 13.9349 0.004568 0.028551 -3.020363
2011-03-21 08:51:05 51°24.482 2°47.278 13.9213 0.004568 0.028552 -3.020363
2011-03-21 08:51:10 51°24.496 2°47.261 13.9149 0.004568 0.028552 -3.020363
2011-03-21 08:51:15 51°24.511 2°47.243 13.9294 0.004568 0.028552 -3.020363
2011-03-21 08:51:20 51°24.525 2°47.225 13.9317 0.004568 0.028552 -3.020363
2011-03-21 08:51:25 51°24.539 2°47.207 13.934 0.004568 0.028552 -3.020363
2011-03-21 08:51:30 51°24.553 2°47.189 13.9088 0.004568 0.028552 -3.020363
2011-03-21 08:51:35 51°24.567 2°47.171 13.9026 0.004568 0.028552 -3.020363
2011-03-21 08:51:40 51°24.582 2°47.154 13.9253 0.004568 0.028552 -3.020363
2011-03-21 08:51:45 51°24.596 2°47.136 13.9304 0.004568 0.028552 -3.020363
2011-03-21 08:51:50 51°24.611 2°47.119 13.923 0.004568 0.028553 -3.020363
2011-03-21 08:51:54 51°24.623 2°47.106 13.9344 0.004568 0.028553 -3.020363
2011-03-21 08:52:00 51°24.64 2°47.085 13.961 0.004568 0.028553 -3.020363
2011-03-21 08:52:05 51°24.654 2°47.067 13.9377 0.004568 0.028553 -3.020363
2011-03-21 08:52:10 51°24.669 2°47.05 13.9557 0.004568 0.028553 -3.020363
2011-03-21 08:52:14 51°24.68 2°47.036 13.9334 0.004568 0.028553 -3.020363
2011-03-21 08:52:20 51°24.698 2°47.014 13.9411 0.004568 0.028553 -3.020363
2011-03-21 08:52:25 51°24.712 2°46.996 13.916 0.004568 0.028554 -3.020363
2011-03-21 08:52:30 51°24.726 2°46.978 13.9263 0.004568 0.028554 -3.020363
2011-03-21 08:52:34 51°24.738 2°46.964 13.9351 0.004568 0.028554 -3.020363
2011-03-21 08:52:40 51°24.755 2°46.942 13.9192 0.004568 0.028554 -3.020363
2011-03-21 08:52:45 51°24.769 2°46.925 13.938 0.004568 0.028554 -3.020363
2011-03-21 08:52:50 51°24.784 2°46.907 13.9672 0.004568 0.028554 -3.020363
2011-03-21 08:52:54 51°24.795 2°46.893 13.9554 0.004568 0.028554 -3.020363
2011-03-21 08:53:00 51°24.813 2°46.872 13.9442 0.004568 0.028554 -3.020363
2011-03-21 08:53:05 51°24.827 2°46.854 13.9372 0.004568 0.028554 -3.020363
2011-03-21 08:53:10 51°24.842 2°46.837 13.9439 0.004568 0.028555 -3.020363
2011-03-21 08:53:15 51°24.856 2°46.82 13.9531 0.004568 0.028555 -3.020363
2011-03-21 08:53:20 51°24.87 2°46.802 13.9426 0.004568 0.028555 -3.020363
2011-03-21 08:53:25 51°24.885 2°46.785 13.9723 0.004568 0.028555 -3.020363
2011-03-21 08:53:30 51°24.9 2°46.768 13.9694 0.004568 0.028555 -3.020363
2011-03-21 08:53:35 51°24.914 2°46.75 13.955 0.004568 0.028555 -3.020363
2011-03-21 08:53:40 51°24.928 2°46.733 13.974 0.004568 0.028556 -3.020363
2011-03-21 08:53:45 51°24.942 2°46.715 13.9812 0.004568 0.028556 -3.020363
2011-03-21 08:53:50 51°24.957 2°46.698 13.9355 0.004568 0.028556 -3.020363
2011-03-21 08:53:55 51°24.971 2°46.68 13.9619 0.004568 0.028556 -3.020363
2011-03-21 08:54:00 51°24.985 2°46.663 13.9698 0.004568 0.028556 -3.020363
2011-03-21 08:54:05 51°25 2°46.646 13.9729 0.004568 0.028556 -3.020363
2011-03-21 08:54:10 51°25.014 2°46.628 13.9663 0.004568 0.028556 -3.020363
2011-03-21 08:54:15 51°25.029 2°46.611 13.9644 0.004568 0.028556 -3.020363
2011-03-21 08:54:20 51°25.043 2°46.593 13.9466 0.004568 0.028556 -3.020363
2011-03-21 08:54:25 51°25.057 2°46.575 13.947 0.004568 0.028556 -3.020363
2011-03-21 08:54:30 51°25.071 2°46.558 13.9558 0.004568 0.028557 -3.020363
2011-03-21 08:54:34 51°25.083 2°46.544 13.9689 0.004568 0.028557 -3.020363
2011-03-21 08:54:40 51°25.1 2°46.523 13.9724 0.004568 0.028557 -3.020363
2011-03-21 08:54:45 51°25.114 2°46.506 13.9709 0.004568 0.028557 -3.020363
2011-03-21 08:54:50 51°25.129 2°46.489 13.9864 0.004568 0.028557 -3.020363
2011-03-21 08:54:54 51°25.14 2°46.475 13.9899 0.004568 0.028557 -3.020363
2011-03-21 08:55:00 51°25.158 2°46.454 13.9811 0.004568 0.028557 -3.020363
2011-03-21 08:55:05 51°25.172 2°46.437 13.9857 0.004568 0.028557 -3.020363
2011-03-21 08:55:10 51°25.186 2°46.419 13.9586 0.004568 0.028558 -3.020363
2011-03-21 08:55:14 51°25.198 2°46.405 13.9997 0.004568 0.028558 -3.020363
2011-03-21 08:55:20 51°25.215 2°46.384 13.9416 0.004568 0.028558 -3.020363
2011-03-21 08:55:25 51°25.23 2°46.366 13.8693 0.004568 0.028558 -3.020363
2011-03-21 08:55:30 51°25.244 2°46.35 13.9097 0.004568 0.028558 -3.020363
2011-03-21 08:55:35 51°25.259 2°46.334 13.874 0.004568 0.028558 -3.020363
2011-03-21 08:55:40 51°25.274 2°46.319 13.9079 0.004568 0.028558 -3.020363
2011-03-21 08:55:45 51°25.29 2°46.306 13.9564 0.004568 0.028558 -3.020363
2011-03-21 08:55:50 51°25.305 2°46.293 13.9763 0.004568 0.028558 -3.020363
2011-03-21 08:55:55 51°25.321 2°46.281 14.0043 0.004568 0.028558 -3.020363
2011-03-21 08:56:00 51°25.337 2°46.27 13.9942 0.004568 0.028559 -3.020363
2011-03-21 08:56:05 51°25.352 2°46.258 14.0099 0.004568 0.028559 -3.020363
2011-03-21 08:56:10 51°25.368 2°46.246 14.0026 0.004568 0.028559 -3.020363
2011-03-21 08:56:15 51°25.384 2°46.235 14.0042 0.004568 0.028559 -3.020363
2011-03-21 08:56:20 51°25.399 2°46.223 14.002 0.004568 0.028559 -3.020363
2011-03-21 08:56:25 51°25.415 2°46.212 14.0153 0.004568 0.028559 -3.020363
2011-03-21 08:56:30 51°25.431 2°46.2 14.018 0.004568 0.028559 -3.020363
2011-03-21 08:56:35 51°25.446 2°46.188 14.013 0.004568 0.028559 -3.020363
2011-03-21 08:56:40 51°25.462 2°46.176 14.0223 0.004568 0.02856 -3.020363
2011-03-21 08:56:45 51°25.477 2°46.163 14.013 0.004568 0.02856 -3.020363
2011-03-21 08:56:50 51°25.492 2°46.15 13.979 0.004568 0.02856 -3.020363
2011-03-21 08:56:54 51°25.505 2°46.139 13.9978 0.004568 0.02856 -3.020363
2011-03-21 08:57:00 51°25.523 2°46.123 13.9452 0.004568 0.02856 -3.020363
2011-03-21 08:57:05 51°25.538 2°46.11 13.9868 0.004568 0.02856 -3.020363
2011-03-21 08:57:10 51°25.553 2°46.098 13.983 0.004568 0.02856 -3.020363
2011-03-21 08:57:14 51°25.566 2°46.088 14.0189 0.004568 0.02856 -3.020363
2011-03-21 08:57:20 51°25.584 2°46.072 14.0032 0.004568 0.02856 -3.020363
2011-03-21 08:57:25 51°25.599 2°46.06 14.016 0.004568 0.02856 -3.020363
2011-03-21 08:57:30 51°25.614 2°46.047 13.9877 0.004568 0.028561 -3.020363
2011-03-21 08:57:34 51°25.627 2°46.036 14.0149 0.004568 0.028561 -3.020363
2011-03-21 08:57:40 51°25.645 2°46.022 14.0191 0.004568 0.028561 -3.020363
2011-03-21 08:57:45 51°25.66 2°46.008 14.0164 0.004568 0.028561 -3.020363
2011-03-21 08:57:50 51°25.675 2°45.996 13.9882 0.004568 0.028561 -3.020363
2011-03-21 08:57:55 51°25.69 2°45.982 13.9807 0.004568 0.028561 -3.020363
2011-03-21 08:58:00 51°25.706 2°45.97 13.9583 0.004568 0.028561 -3.020363
2011-03-21 08:58:05 51°25.721 2°45.957 13.9402 0.004568 0.028561 -3.020363
2011-03-21 08:58:10 51°25.736 2°45.946 14.0056 0.004568 0.028561 -3.020363
2011-03-21 08:58:15 51°25.752 2°45.934 13.9833 0.004568 0.028561 -3.020363
2011-03-21 08:58:20 51°25.767 2°45.922 13.9732 0.004568 0.028561 -3.020363
2011-03-21 08:58:25 51°25.782 2°45.911 13.9572 0.004568 0.028562 -3.020363
2011-03-21 08:58:30 51°25.798 2°45.9 14.0425 0.004568 0.028562 -3.020363
2011-03-21 08:58:34 51°25.81 2°45.891 13.965 0.004465 0.028094 -3.020363
2011-03-21 08:58:40 51°25.829 2°45.878 14.0265 0.004568 0.028562 -3.020363
2011-03-21 08:58:45 51°25.844 2°45.866 14.0172 0.004568 0.028562 -3.020363
2011-03-21 08:58:50 51°25.86 2°45.855 14.032 0.004568 0.028562 -3.020363
2011-03-21 08:58:54 51°25.872 2°45.846 14.0094 0.004568 0.028562 -3.020363
2011-03-21 08:59:00 51°25.891 2°45.833 14.0361 0.004568 0.028562 -3.020363
2011-03-21 08:59:05 51°25.907 2°45.822 14.0082 0.004568 0.028562 -3.020363
2011-03-21 08:59:10 51°25.922 2°45.81 13.9965 0.004568 0.028562 -3.020363
2011-03-21 08:59:14 51°25.935 2°45.801 14.0117 0.004568 0.028563 -3.020363
2011-03-21 08:59:20 51°25.953 2°45.787 13.9976 0.004568 0.028563 -3.020363
2011-03-21 08:59:25 51°25.968 2°45.776 14.0432 0.004568 0.028563 -3.020363
2011-03-21 08:59:30 51°25.984 2°45.765 14.0193 0.004568 0.028563 -3.020363
2011-03-21 08:59:34 51°25.996 2°45.755 14.046 0.004568 0.028563 -3.020363
2011-03-21 08:59:40 51°26.015 2°45.742 14.0284 0.004568 0.028563 -3.020363
2011-03-21 08:59:45 51°26.03 2°45.73 14.0097 0.004568 0.028563 -3.020363
2011-03-21 08:59:50 51°26.045 2°45.719 14.0293 0.004568 0.028563 -3.020363
2011-03-21 08:59:55 51°26.061 2°45.708 14.0201 0.004568 0.028563 -3.020363
2011-03-21 09:00:00 51°26.076 2°45.697 14.046 0.004568 0.028563 -3.020363
2011-03-21 09:00:05 51°26.092 2°45.686 14.0594 0.004568 0.028564 -3.020363
2011-03-21 09:00:10 51°26.107 2°45.674 14.0443 0.004568 0.028564 -3.020363
2011-03-21 09:00:15 51°26.123 2°45.663 14.0027 0.004568 0.028564 -3.020363
2011-03-21 09:00:20 51°26.138 2°45.651 14.0073 0.004465 0.028096 -3.020363
2011-03-21 09:00:25 51°26.154 2°45.639 13.9839 0.004568 0.028564 -3.020363
2011-03-21 09:00:30 51°26.169 2°45.627 14.0176 0.004568 0.028564 -3.020363
2011-03-21 09:00:35 51°26.184 2°45.615 13.9976 0.004568 0.028564 -3.020363
2011-03-21 09:00:40 51°26.199 2°45.603 14.0107 0.004568 0.028564 -3.020363
2011-03-21 09:00:45 51°26.215 2°45.592 14.058 0.004568 0.028564 -3.020363
2011-03-21 09:00:50 51°26.23 2°45.58 14.0468 0.004568 0.028564 -3.020363
2011-03-21 09:00:54 51°26.243 2°45.571 14.0401 0.004568 0.028564 -3.020363
2011-03-21 09:01:00 51°26.261 2°45.557 14.0032 0.004568 0.028565 -3.020363
2011-03-21 09:01:05 51°26.276 2°45.545 14.0163 0.004568 0.028565 -3.020363
2011-03-21 09:01:10 51°26.292 2°45.533 14.0344 0.004568 0.028565 -3.020363
2011-03-21 09:01:14 51°26.304 2°45.524 14.0251 0.004568 0.028565 -3.020363
2011-03-21 09:01:20 51°26.322 2°45.51 14.0401 0.004568 0.028565 -3.020363
2011-03-21 09:01:25 51°26.338 2°45.498 14.0517 0.004568 0.028565 -3.020363
2011-03-21 09:01:30 51°26.353 2°45.486 14.0415 0.004568 0.028565 -3.020363
2011-03-21 09:01:34 51°26.365 2°45.476 14.0386 0.004568 0.028565 -3.020363
2011-03-21 09:01:40 51°26.384 2°45.462 14.0585 0.004465 0.028097 -3.020363
2011-03-21 09:01:45 51°26.399 2°45.45 14.0658 0.004465 0.028097 -3.020363
2011-03-21 09:01:50 51°26.415 2°45.438 14.0096 0.004568 0.028565 -3.020363
2011-03-21 09:01:54 51°26.427 2°45.429 14.0491 0.004465 0.028098 -3.020363
2011-03-21 09:02:00 51°26.445 2°45.414 14.0287 0.004465 0.028098 -3.020363
2011-03-21 09:02:05 51°26.461 2°45.402 14.0421 0.004568 0.028566 -3.020363
2011-03-21 09:02:10 51°26.476 2°45.39 14.0427 0.004568 0.028566 -3.020363
2011-03-21 09:02:15 51°26.492 2°45.378 14.0429 0.004568 0.028566 -3.020363
2011-03-21 09:02:20 51°26.507 2°45.366 14.0118 0.004568 0.028566 -3.020363
2011-03-21 09:02:25 51°26.523 2°45.354 14.0643 0.004568 0.028566 -3.020363
2011-03-21 09:02:30 51°26.539 2°45.342 14.0631 0.004568 0.028566 -3.020363
2011-03-21 09:02:35 51°26.554 2°45.33 14.0624 0.004568 0.028566 -3.020363
2011-03-21 09:02:40 51°26.57 2°45.318 14.0635 0.004568 0.028566 -3.020363
2011-03-21 09:02:45 51°26.585 2°45.306 14.0688 0.004568 0.028567 -3.020363
2011-03-21 09:02:50 51°26.601 2°45.294 14.0578 0.004568 0.028567 -3.020363
2011-03-21 09:02:55 51°26.617 2°45.282 14.0648 0.004465 0.028099 -3.020363
2011-03-21 09:03:00 51°26.632 2°45.27 14.0566 0.004465 0.028099 -3.020363
2011-03-21 09:03:05 51°26.648 2°45.258 14.0646 0.004568 0.028567 -3.020363
2011-03-21 09:03:10 51°26.664 2°45.246 14.0649 0.004568 0.028567 -3.020363
2011-03-21 09:03:14 51°26.676 2°45.236 14.0592 0.004465 0.028099 -3.020363
2011-03-21 09:03:20 51°26.695 2°45.222 14.0695 0.004465 0.028099 -3.020363
2011-03-21 09:03:25 51°26.71 2°45.21 14.0721 0.004568 0.028567 -3.020363
2011-03-21 09:03:30 51°26.726 2°45.198 14.0836 0.004465 0.028099 -3.020363
2011-03-21 09:03:34 51°26.739 2°45.189 14.0667 0.004568 0.028568 -3.020363
2011-03-21 09:03:40 51°26.758 2°45.175 14.0716 0.004568 0.028568 -3.020363
2011-03-21 09:03:45 51°26.773 2°45.163 14.0888 0.004568 0.028568 -3.020363
2011-03-21 09:03:50 51°26.789 2°45.151 14.0724 0.004465 0.0281 -3.020363
2011-03-21 09:03:54 51°26.802 2°45.142 14.065 0.004465 0.0281 -3.020363
2011-03-21 09:04:00 51°26.821 2°45.128 14.0866 0.004465 0.0281 -3.020363
2011-03-21 09:04:05 51°26.836 2°45.117 14.0988 0.004568 0.028568 -3.020363
2011-03-21 09:04:10 51°26.852 2°45.105 14.1112 0.004568 0.028568 -3.020363
2011-03-21 09:04:14 51°26.865 2°45.096 14.1031 0.004568 0.028568 -3.020363
2011-03-21 09:04:20 51°26.884 2°45.081 14.089 0.004465 0.0281 -3.020363
2011-03-21 09:04:25 51°26.899 2°45.069 14.0893 0.004465 0.0281 -3.020363
2011-03-21 09:04:30 51°26.915 2°45.057 14.0916 0.004568 0.028569 -3.020363
2011-03-21 09:04:35 51°26.931 2°45.044 14.0808 0.004568 0.028569 -3.020363
2011-03-21 09:04:40 51°26.946 2°45.033 14.0732 0.004568 0.028569 -3.020363
2011-03-21 09:04:45 51°26.962 2°45.021 14.0916 0.004465 0.028101 -3.020363
2011-03-21 09:04:50 51°26.978 2°45.009 14.0956 0.004568 0.028569 -3.020363
2011-03-21 09:04:55 51°26.994 2°44.997 14.0661 0.004568 0.028569 -3.020363
2011-03-21 09:05:00 51°27.009 2°44.986 14.0635 0.004568 0.028569 -3.020363
2011-03-21 09:05:05 51°27.025 2°44.974 14.0495 0.004568 0.028569 -3.020363
2011-03-21 09:05:10 51°27.041 2°44.964 14.0771 0.004568 0.028569 -3.020363
2011-03-21 09:05:15 51°27.057 2°44.953 14.0939 0.004465 0.028101 -3.020363
2011-03-21 09:05:20 51°27.073 2°44.942 14.076 0.004465 0.028101 -3.020363
2011-03-21 09:05:25 51°27.089 2°44.932 14.1135 0.004568 0.02857 -3.020363
2011-03-21 09:05:30 51°27.105 2°44.921 14.1049 0.004568 0.02857 -3.020363
2011-03-21 09:05:34 51°27.117 2°44.913 14.1354 0.004465 0.028102 -3.020363
2011-03-21 09:05:40 51°27.136 2°44.9 14.083 0.004465 0.028102 -3.020363
2011-03-21 09:05:45 51°27.152 2°44.888 14.0988 0.004465 0.028102 -3.020363
2011-03-21 09:05:50 51°27.168 2°44.877 14.1 0.004568 0.02857 -3.020363
2011-03-21 09:05:54 51°27.18 2°44.868 14.1252 0.004465 0.028102 -3.020363
2011-03-21 09:06:00 51°27.199 2°44.854 14.0813 0.004465 0.028102 -3.020363
2011-03-21 09:06:05 51°27.215 2°44.843 14.1081 0.004465 0.028102 -3.020363
2011-03-21 09:06:10 51°27.231 2°44.832 14.0979 0.004465 0.028102 -3.020363
2011-03-21 09:06:14 51°27.243 2°44.822 14.1035 0.004465 0.028102 -3.020363
2011-03-21 09:06:20 51°27.262 2°44.809 14.0984 0.004465 0.028102 -3.020363
2011-03-21 09:06:25 51°27.278 2°44.798 14.1225 0.004465 0.028103 -3.020363
2011-03-21 09:06:30 51°27.294 2°44.787 14.113 0.004465 0.028103 -3.020363
2011-03-21 09:06:34 51°27.306 2°44.778 14.1491 0.004465 0.028103 -3.020363
2011-03-21 09:06:40 51°27.325 2°44.765 14.0886 0.004465 0.028103 -3.020363
2011-03-21 09:06:45 51°27.341 2°44.754 14.09 0.004568 0.028571 -3.020363
2011-03-21 09:06:50 51°27.357 2°44.744 14.1017 0.004465 0.028103 -3.020363
2011-03-21 09:06:54 51°27.369 2°44.735 14.1178 0.004465 0.028103 -3.020363
2011-03-21 09:07:00 51°27.388 2°44.722 14.1107 0.004465 0.028103 -3.020363
2011-03-21 09:07:05 51°27.404 2°44.711 14.1229 0.004465 0.028103 -3.020363
2011-03-21 09:07:10 51°27.42 2°44.701 14.1053 0.004568 0.028572 -3.020363
2011-03-21 09:07:15 51°27.436 2°44.69 14.1276 0.004568 0.028572 -3.020363
2011-03-21 09:07:20 51°27.451 2°44.679 14.1089 0.004465 0.028103 -3.020363
2011-03-21 09:07:25 51°27.467 2°44.669 14.1263 0.004465 0.028104 -3.020363
2011-03-21 09:07:30 51°27.483 2°44.658 14.1252 0.004465 0.028104 -3.020363
2011-03-21 09:07:34 51°27.496 2°44.649 14.1428 0.004465 0.028104 -3.020363
2011-03-21 09:07:40 51°27.515 2°44.636 14.1297 0.004465 0.028104 -3.020363
2011-03-21 09:07:45 51°27.53 2°44.624 14.1574 0.004465 0.028104 -3.020363
2011-03-21 09:07:50 51°27.546 2°44.612 14.1453 0.004465 0.028104 -3.020363
2011-03-21 09:07:54 51°27.558 2°44.603 14.1114 0.004465 0.028104 -3.020363
2011-03-21 09:08:00 51°27.577 2°44.588 14.1191 0.004465 0.028104 -3.020363